Time,TemperatureF,DewpointF,PressureIn,WindDirection,WindDirectionDegrees,WindSpeedMPH,WindSpeedGustMPH,Humidity,HourlyPrecipIn,Conditions,Clouds,dailyrainin,SolarRadiationWatts/m^2,SoftwareType,DateUTC
2013-06-24 00:01:00,71.9,68.8,30.14,WNW,291,0.0,3.0,90,0.00,,SKC,0.00,0.00,VWS V14.01,2013-06-24 04:01:00,
2013-06-24 00:06:00,71.8,68.7,30.14,WNW,291,0.0,2.0,90,0.00,,SKC,0.00,0.00,VWS V14.01,2013-06-24 04:06:00,
2013-06-24 00:11:00,71.7,68.6,30.15,WNW,291,0.0,2.0,90,0.00,,SKC,0.00,0.00,VWS V14.01,2013-06-24 04:11:00,
2013-06-24 00:12:00,71.7,68.6,30.15,WNW,291,0.0,2.0,90,0.00,,SKC,0.00,0.00,VWS V14.01,2013-06-24 04:12:00,
2013-06-24 00:16:00,71.5,68.4,30.15,WNW,291,0.0,2.0,90,0.00,,SKC,0.00,0.00,VWS V14.01,2013-06-24 04:16:00,
2013-06-24 00:17:00,71.5,68.4,30.15,WNW,291,0.0,2.0,90,0.00,,SKC,0.00,0.00,VWS V14.01,2013-06-24 04:17:00,
2013-06-24 00:21:00,71.3,68.5,30.15,WNW,291,0.0,2.0,91,0.00,,SKC,0.00,0.00,VWS V14.01,2013-06-24 04:21:00,
2013-06-24 00:22:00,71.3,68.5,30.15,WNW,291,0.0,2.0,91,0.00,,SKC,0.00,0.00,VWS V14.01,2013-06-24 04:22:00,
2013-06-24 00:23:00,71.3,68.5,30.15,WNW,291,0.0,2.0,91,0.00,,SKC,0.00,0.00,VWS V14.01,2013-06-24 04:23:00,
2013-06-24 00:27:00,71.2,68.4,30.15,WNW,291,0.0,2.0,91,0.00,,SKC,0.00,0.00,VWS V14.01,2013-06-24 04:27:00,
2013-06-24 00:28:00,71.2,68.4,30.15,WNW,291,0.0,2.0,91,0.00,,SKC,0.00,0.00,VWS V14.01,2013-06-24 04:28:00,
2013-06-24 00:32:00,71.1,68.3,30.15,WNW,290,0.0,1.0,91,0.00,,SKC,0.00,0.00,VWS V14.01,2013-06-24 04:32:00,
2013-06-24 00:33:00,71.1,68.3,30.15,WNW,291,0.0,1.0,91,0.00,,SKC,0.00,0.00,VWS V14.01,2013-06-24 04:33:00,
2013-06-24 00:34:00,71.1,68.3,30.15,WNW,291,0.0,1.0,91,0.00,,SKC,0.00,0.00,VWS V14.01,2013-06-24 04:34:00,
2013-06-24 00:37:00,71.0,68.6,30.15,WNW,291,0.0,1.0,92,0.00,,SKC,0.00,0.00,VWS V14.01,2013-06-24 04:37:00,
2013-06-24 00:38:00,71.0,68.6,30.15,WNW,291,0.0,1.0,92,0.00,,SKC,0.00,0.00,VWS V14.01,2013-06-24 04:38:00,
2013-06-24 00:39:00,71.0,68.6,30.15,WNW,291,0.0,1.0,92,0.00,,SKC,0.00,0.00,VWS V14.01,2013-06-24 04:39:00,
2013-06-24 00:42:00,70.9,68.5,30.15,WNW,291,0.0,2.0,92,0.00,,SKC,0.00,0.00,VWS V14.01,2013-06-24 04:42:00,
2013-06-24 00:43:00,70.9,68.5,30.15,WNW,291,0.0,2.0,92,0.00,,SKC,0.00,0.00,VWS V14.01,2013-06-24 04:43:00,
2013-06-24 00:44:00,70.9,68.5,30.15,WNW,291,0.0,2.0,92,0.00,,SKC,0.00,0.00,VWS V14.01,2013-06-24 04:44:00,
2013-06-24 00:47:00,70.8,68.4,30.15,WNW,291,0.0,2.0,92,0.00,,SKC,0.00,0.00,VWS V14.01,2013-06-24 04:47:00,
2013-06-24 00:49:00,70.8,68.4,30.15,WNW,291,0.0,2.0,92,0.00,,SKC,0.00,0.00,VWS V14.01,2013-06-24 04:49:00,
2013-06-24 00:53:00,70.8,68.4,30.15,WNW,291,0.0,2.0,92,0.00,,SKC,0.00,0.00,VWS V14.01,2013-06-24 04:53:00,
2013-06-24 00:54:00,70.7,68.3,30.14,WNW,291,0.0,2.0,92,0.00,,SKC,0.00,0.00,VWS V14.01,2013-06-24 04:54:00,
2013-06-24 00:55:00,70.7,68.3,30.14,WNW,291,0.0,2.0,92,0.00,,SKC,0.00,0.00,VWS V14.01,2013-06-24 04:55:00,
2013-06-24 00:58:00,70.7,68.6,30.15,WNW,291,0.0,2.0,93,0.00,,SKC,0.00,0.00,VWS V14.01,2013-06-24 04:58:00,
2013-06-24 00:59:00,70.7,68.6,30.15,WNW,291,0.0,2.0,93,0.00,,SKC,0.00,0.00,VWS V14.01,2013-06-24 04:59:00,
2013-06-24 01:00:00,70.7,68.6,30.15,WNW,291,0.0,2.0,93,0.00,,SKC,0.00,0.00,VWS V14.01,2013-06-24 05:00:00,
2013-06-24 01:03:00,70.6,68.5,30.15,WNW,291,1.0,2.0,93,0.00,,SKC,0.00,0.00,VWS V14.01,2013-06-24 05:03:00,
2013-06-24 01:04:00,70.6,68.5,30.15,WNW,291,0.0,2.0,93,0.00,,SKC,0.00,0.00,VWS V14.01,2013-06-24 05:04:00,
2013-06-24 01:05:00,70.6,68.5,30.15,WNW,291,0.0,2.0,93,0.00,,SKC,0.00,0.00,VWS V14.01,2013-06-24 05:05:00,
2013-06-24 01:06:00,70.6,68.5,30.15,WNW,291,1.0,2.0,93,0.00,,SKC,0.00,0.00,VWS V14.01,2013-06-24 05:06:00,
2013-06-24 01:09:00,70.5,68.4,30.14,WNW,291,0.0,2.0,93,0.00,,SKC,0.00,0.00,VWS V14.01,2013-06-24 05:09:00,
2013-06-24 01:10:00,70.5,68.4,30.14,WNW,291,0.0,2.0,93,0.00,,SKC,0.00,0.00,VWS V14.01,2013-06-24 05:10:00,
2013-06-24 01:11:00,70.5,68.4,30.14,WNW,291,0.0,2.0,93,0.00,,SKC,0.00,0.00,VWS V14.01,2013-06-24 05:11:00,
2013-06-24 01:14:00,70.4,68.3,30.14,WNW,291,0.0,2.0,93,0.00,,SKC,0.00,0.00,VWS V14.01,2013-06-24 05:14:00,
2013-06-24 01:15:00,70.5,68.4,30.14,WNW,291,1.0,2.0,93,0.00,,SKC,0.00,0.00,VWS V14.01,2013-06-24 05:15:00,
2013-06-24 01:16:00,70.5,68.4,30.14,WNW,291,2.0,2.0,93,0.00,,SKC,0.00,0.00,VWS V14.01,2013-06-24 05:16:00,
2013-06-24 01:19:00,70.4,68.3,30.14,WNW,291,3.0,4.0,93,0.00,,SKC,0.00,0.00,VWS V14.01,2013-06-24 05:19:00,
2013-06-24 01:20:00,70.4,68.3,30.14,WNW,291,2.0,4.0,93,0.00,,SKC,0.00,0.00,VWS V14.01,2013-06-24 05:20:00,
2013-06-24 01:21:00,70.4,68.3,30.14,WNW,291,2.0,4.0,93,0.00,,SKC,0.00,0.00,VWS V14.01,2013-06-24 05:21:00,
2013-06-24 01:22:00,70.3,68.5,30.14,WNW,291,2.0,4.0,94,0.00,,SKC,0.00,0.00,VWS V14.01,2013-06-24 05:22:00,
2013-06-24 01:25:00,70.2,68.4,30.14,WNW,291,1.0,4.0,94,0.00,,SKC,0.00,0.00,VWS V14.01,2013-06-24 05:25:00,
2013-06-24 01:26:00,70.2,68.4,30.14,WNW,291,2.0,4.0,94,0.00,,SKC,0.00,0.00,VWS V14.01,2013-06-24 05:26:00,
2013-06-24 01:27:00,70.1,68.3,30.14,WNW,291,1.0,4.0,94,0.00,,SKC,0.00,0.00,VWS V14.01,2013-06-24 05:27:00,
2013-06-24 01:30:00,70.1,68.3,30.14,WNW,291,1.0,4.0,94,0.00,,SKC,0.00,0.00,VWS V14.01,2013-06-24 05:30:00,
2013-06-24 01:31:00,70.1,68.3,30.14,WNW,291,2.0,4.0,94,0.00,,SKC,0.00,0.00,VWS V14.01,2013-06-24 05:31:00,
2013-06-24 01:32:00,70.0,68.2,30.14,WNW,291,0.0,1.0,94,0.00,,SKC,0.00,0.00,VWS V14.01,2013-06-24 05:32:00,
2013-06-24 01:35:00,70.0,68.2,30.14,WNW,291,0.0,1.0,94,0.00,,SKC,0.00,0.00,VWS V14.01,2013-06-24 05:35:00,
2013-06-24 01:36:00,70.0,68.2,30.14,WNW,291,0.0,1.0,94,0.00,,SKC,0.00,0.00,VWS V14.01,2013-06-24 05:36:00,
2013-06-24 01:38:00,70.0,68.2,30.14,WNW,291,0.0,1.0,94,0.00,,SKC,0.00,0.00,VWS V14.01,2013-06-24 05:38:00,
2013-06-24 01:40:00,70.0,68.2,30.14,WNW,291,0.0,1.0,94,0.00,,SKC,0.00,0.00,VWS V14.01,2013-06-24 05:40:00,
2013-06-24 01:41:00,70.0,68.2,30.14,WNW,291,0.0,1.0,94,0.00,,SKC,0.00,0.00,VWS V14.01,2013-06-24 05:41:00,
2013-06-24 01:43:00,70.0,68.2,30.14,WNW,291,1.0,2.0,94,0.00,,SKC,0.00,0.00,VWS V14.01,2013-06-24 05:43:00,
2013-06-24 01:45:00,70.0,68.2,30.14,WNW,291,1.0,2.0,94,0.00,,SKC,0.00,0.00,VWS V14.01,2013-06-24 05:45:00,
2013-06-24 01:48:00,69.9,68.1,30.14,WNW,291,1.0,2.0,94,0.00,,SKC,0.00,0.00,VWS V14.01,2013-06-24 05:48:00,
2013-06-24 01:51:00,69.9,68.4,30.14,WNW,291,2.0,2.0,95,0.00,,SKC,0.00,0.00,VWS V14.01,2013-06-24 05:51:00,
2013-06-24 01:53:00,69.9,68.4,30.14,WNW,291,0.0,2.0,95,0.00,,SKC,0.00,0.00,VWS V14.01,2013-06-24 05:53:00,
2013-06-24 01:54:00,69.9,68.4,30.14,WNW,291,1.0,2.0,95,0.00,,SKC,0.00,0.00,VWS V14.01,2013-06-24 05:54:00,
2013-06-24 01:56:00,69.9,68.4,30.14,WNW,291,1.0,2.0,95,0.00,,SKC,0.00,0.00,VWS V14.01,2013-06-24 05:56:00,
2013-06-24 01:58:00,69.9,68.4,30.14,WNW,291,0.0,2.0,95,0.00,,SKC,0.00,0.00,VWS V14.01,2013-06-24 05:58:00,
2013-06-24 02:00:00,69.9,68.4,30.14,WNW,291,0.0,2.0,95,0.00,,SKC,0.00,0.00,VWS V14.01,2013-06-24 06:00:00,
2013-06-24 02:01:00,69.8,68.3,30.14,WNW,291,0.0,0.0,95,0.00,,SKC,0.00,0.00,VWS V14.01,2013-06-24 06:01:00,
2013-06-24 02:03:00,69.7,68.2,30.14,WNW,291,0.0,0.0,95,0.00,,SKC,0.00,0.00,VWS V14.01,2013-06-24 06:03:00,
2013-06-24 02:05:00,69.6,68.1,30.14,WNW,291,0.0,0.0,95,0.00,,SKC,0.00,0.00,VWS V14.01,2013-06-24 06:05:00,
2013-06-24 02:07:00,69.5,68.0,30.14,WNW,291,1.0,1.0,95,0.00,,SKC,0.00,0.00,VWS V14.01,2013-06-24 06:07:00,
2013-06-24 02:08:00,69.5,68.0,30.14,WNW,291,0.0,1.0,95,0.00,,SKC,0.00,0.00,VWS V14.01,2013-06-24 06:08:00,
2013-06-24 02:09:00,69.5,68.0,30.14,WNW,291,0.0,1.0,95,0.00,,SKC,0.00,0.00,VWS V14.01,2013-06-24 06:09:00,
2013-06-24 02:11:00,69.5,68.0,30.14,WNW,291,0.0,1.0,95,0.00,,SKC,0.00,0.00,VWS V14.01,2013-06-24 06:11:00,
2013-06-24 02:12:00,69.5,68.0,30.14,WNW,291,0.0,1.0,95,0.00,,SKC,0.00,0.00,VWS V14.01,2013-06-24 06:12:00,
2013-06-24 02:14:00,69.5,68.0,30.14,WNW,291,0.0,1.0,95,0.00,,SKC,0.00,0.00,VWS V14.01,2013-06-24 06:14:00,
2013-06-24 02:15:00,69.5,68.0,30.14,WNW,291,0.0,1.0,95,0.00,,SKC,0.00,0.00,VWS V14.01,2013-06-24 06:15:00,
2013-06-24 02:16:00,69.5,68.0,30.14,WNW,291,0.0,1.0,95,0.00,,SKC,0.00,0.00,VWS V14.01,2013-06-24 06:16:00,
2013-06-24 02:17:00,69.4,67.9,30.14,WNW,291,0.0,1.0,95,0.00,,SKC,0.00,0.00,VWS V14.01,2013-06-24 06:17:00,
2013-06-24 02:19:00,69.4,67.9,30.14,WNW,291,0.0,1.0,95,0.00,,SKC,0.00,0.00,VWS V14.01,2013-06-24 06:19:00,
2013-06-24 02:20:00,69.4,67.9,30.14,WNW,291,0.0,1.0,95,0.00,,SKC,0.00,0.00,VWS V14.01,2013-06-24 06:20:00,
2013-06-24 02:22:00,69.3,67.8,30.14,WNW,291,0.0,1.0,95,0.00,,SKC,0.00,0.00,VWS V14.01,2013-06-24 06:22:00,
2013-06-24 02:23:00,69.3,67.8,30.14,WNW,291,0.0,1.0,95,0.00,,SKC,0.00,0.00,VWS V14.01,2013-06-24 06:23:00,
2013-06-24 02:24:00,69.3,67.8,30.14,WNW,291,0.0,1.0,95,0.00,,SKC,0.00,0.00,VWS V14.01,2013-06-24 06:24:00,
2013-06-24 02:25:00,69.3,67.8,30.14,WNW,291,0.0,1.0,95,0.00,,SKC,0.00,0.00,VWS V14.01,2013-06-24 06:25:00,
2013-06-24 02:27:00,69.3,67.8,30.14,WNW,291,0.0,1.0,95,0.00,,SKC,0.00,0.00,VWS V14.01,2013-06-24 06:27:00,
2013-06-24 02:29:00,69.2,67.7,30.14,WNW,291,0.0,1.0,95,0.00,,SKC,0.00,0.00,VWS V14.01,2013-06-24 06:29:00,
2013-06-24 02:31:00,69.2,67.7,30.14,WNW,291,1.0,1.0,95,0.00,,SKC,0.00,0.00,VWS V14.01,2013-06-24 06:31:00,
2013-06-24 02:33:00,69.1,67.6,30.14,WNW,291,0.0,1.0,95,0.00,,SKC,0.00,0.00,VWS V14.01,2013-06-24 06:33:00,
2013-06-24 02:34:00,69.0,67.5,30.14,WNW,291,0.0,1.0,95,0.00,,SKC,0.00,0.00,VWS V14.01,2013-06-24 06:34:00,
2013-06-24 02:36:00,69.0,67.5,30.14,WNW,291,0.0,1.0,95,0.00,,SKC,0.00,0.00,VWS V14.01,2013-06-24 06:36:00,
2013-06-24 02:38:00,68.9,67.4,30.14,WNW,291,0.0,2.0,95,0.00,,SKC,0.00,0.00,VWS V14.01,2013-06-24 06:38:00,
2013-06-24 02:39:00,68.9,67.4,30.13,WNW,291,0.0,2.0,95,0.00,,SKC,0.00,0.00,VWS V14.01,2013-06-24 06:39:00,
2013-06-24 02:41:00,68.8,67.3,30.14,WNW,290,0.0,2.0,95,0.00,,SKC,0.00,0.00,VWS V14.01,2013-06-24 06:41:00,
2013-06-24 02:43:00,68.8,67.3,30.14,WNW,291,0.0,2.0,95,0.00,,SKC,0.00,0.00,VWS V14.01,2013-06-24 06:43:00,
2013-06-24 02:44:00,68.8,67.3,30.14,WNW,291,0.0,2.0,95,0.00,,SKC,0.00,0.00,VWS V14.01,2013-06-24 06:44:00,
2013-06-24 02:47:00,68.8,67.3,30.14,WNW,291,0.0,2.0,95,0.00,,SKC,0.00,0.00,VWS V14.01,2013-06-24 06:47:00,
2013-06-24 02:49:00,68.8,67.3,30.14,WNW,290,0.0,2.0,95,0.00,,SKC,0.00,0.00,VWS V14.01,2013-06-24 06:49:00,
2013-06-24 02:50:00,68.8,67.3,30.14,WNW,291,0.0,2.0,95,0.00,,SKC,0.00,0.00,VWS V14.01,2013-06-24 06:50:00,
2013-06-24 02:52:00,68.7,67.2,30.13,WNW,291,0.0,2.0,95,0.00,,SKC,0.00,0.00,VWS V14.01,2013-06-24 06:52:00,
2013-06-24 02:54:00,68.7,67.2,30.13,WNW,290,0.0,2.0,95,0.00,,SKC,0.00,0.00,VWS V14.01,2013-06-24 06:54:00,
2013-06-24 02:55:00,68.7,67.2,30.13,WNW,291,0.0,2.0,95,0.00,,SKC,0.00,0.00,VWS V14.01,2013-06-24 06:55:00,
2013-06-24 02:57:00,68.7,67.5,30.13,WNW,291,0.0,2.0,96,0.00,,SKC,0.00,0.00,VWS V14.01,2013-06-24 06:57:00,
2013-06-24 03:00:00,68.6,67.4,30.13,WNW,291,1.0,2.0,96,0.00,,SKC,0.00,0.00,VWS V14.01,2013-06-24 07:00:00,
2013-06-24 03:01:00,68.6,67.4,30.13,WNW,291,2.0,2.0,96,0.00,,SKC,0.00,0.00,VWS V14.01,2013-06-24 07:01:00,
2013-06-24 03:03:00,68.6,67.4,30.13,WNW,291,2.0,3.0,96,0.00,,SKC,0.00,0.00,VWS V14.01,2013-06-24 07:03:00,
2013-06-24 03:05:00,68.5,67.3,30.13,WNW,291,2.0,3.0,96,0.00,,SKC,0.00,0.00,VWS V14.01,2013-06-24 07:05:00,
2013-06-24 03:06:00,68.5,67.3,30.13,WNW,291,2.0,3.0,96,0.00,,SKC,0.00,0.00,VWS V14.01,2013-06-24 07:06:00,
2013-06-24 03:08:00,68.5,67.3,30.13,WNW,291,0.0,3.0,96,0.00,,SKC,0.00,0.00,VWS V14.01,2013-06-24 07:08:00,
2013-06-24 03:12:00,68.5,67.3,30.13,WNW,291,0.0,3.0,96,0.00,,SKC,0.00,0.00,VWS V14.01,2013-06-24 07:12:00,
2013-06-24 03:13:00,68.5,67.3,30.13,WNW,291,0.0,3.0,96,0.00,,SKC,0.00,0.00,VWS V14.01,2013-06-24 07:13:00,
2013-06-24 03:17:00,68.4,67.2,30.13,WNW,291,0.0,3.0,96,0.00,,SKC,0.00,0.00,VWS V14.01,2013-06-24 07:17:00,
2013-06-24 03:18:00,68.4,67.2,30.13,WNW,291,0.0,3.0,96,0.00,,SKC,0.00,0.00,VWS V14.01,2013-06-24 07:18:00,
2013-06-24 03:22:00,68.4,67.2,30.13,WNW,291,0.0,3.0,96,0.00,,SKC,0.00,0.00,VWS V14.01,2013-06-24 07:22:00,
2013-06-24 03:23:00,68.4,67.2,30.13,WNW,291,0.0,3.0,96,0.00,,SKC,0.00,0.00,VWS V14.01,2013-06-24 07:23:00,
2013-06-24 03:24:00,68.4,67.2,30.13,WNW,291,0.0,3.0,96,0.00,,SKC,0.00,0.00,VWS V14.01,2013-06-24 07:24:00,
2013-06-24 03:28:00,68.3,67.1,30.13,WNW,290,0.0,3.0,96,0.00,,SKC,0.00,0.00,VWS V14.01,2013-06-24 07:28:00,
2013-06-24 03:29:00,68.3,67.1,30.13,WNW,291,0.0,3.0,96,0.00,,SKC,0.00,0.00,VWS V14.01,2013-06-24 07:29:00,
2013-06-24 03:33:00,68.1,66.9,30.13,WNW,291,0.0,0.0,96,0.00,,SKC,0.00,0.00,VWS V14.01,2013-06-24 07:33:00,
2013-06-24 03:34:00,68.1,66.9,30.13,WNW,291,0.0,0.0,96,0.00,,SKC,0.00,0.00,VWS V14.01,2013-06-24 07:34:00,
2013-06-24 03:36:00,68.0,66.8,30.13,WNW,291,0.0,0.0,96,0.00,,SKC,0.00,0.00,VWS V14.01,2013-06-24 07:36:00,
2013-06-24 03:38:00,68.0,66.8,30.13,WNW,291,0.0,0.0,96,0.00,,SKC,0.00,0.00,VWS V14.01,2013-06-24 07:38:00,
2013-06-24 03:39:00,68.0,66.8,30.13,WNW,291,0.0,0.0,96,0.00,,SKC,0.00,0.00,VWS V14.01,2013-06-24 07:39:00,
2013-06-24 03:41:00,67.9,66.7,30.13,WNW,291,0.0,0.0,96,0.00,,SKC,0.00,0.00,VWS V14.01,2013-06-24 07:41:00,
2013-06-24 03:43:00,67.9,66.7,30.13,WNW,291,0.0,0.0,96,0.00,,SKC,0.00,0.00,VWS V14.01,2013-06-24 07:43:00,
2013-06-24 03:45:00,67.9,66.7,30.13,WNW,291,0.0,0.0,96,0.00,,SKC,0.00,0.00,VWS V14.01,2013-06-24 07:45:00,
2013-06-24 03:46:00,67.9,66.7,30.13,WNW,291,0.0,0.0,96,0.00,,SKC,0.00,0.00,VWS V14.01,2013-06-24 07:46:00,
2013-06-24 03:49:00,67.8,66.6,30.13,WNW,291,0.0,0.0,96,0.00,,SKC,0.00,0.00,VWS V14.01,2013-06-24 07:49:00,
2013-06-24 03:50:00,67.8,66.6,30.13,WNW,291,0.0,0.0,96,0.00,,SKC,0.00,0.00,VWS V14.01,2013-06-24 07:50:00,
2013-06-24 03:52:00,67.7,66.5,30.13,WNW,291,0.0,0.0,96,0.00,,SKC,0.00,0.00,VWS V14.01,2013-06-24 07:52:00,
2013-06-24 03:54:00,67.7,66.5,30.13,WNW,291,0.0,0.0,96,0.00,,SKC,0.00,0.00,VWS V14.01,2013-06-24 07:54:00,
2013-06-24 03:56:00,67.7,66.5,30.13,WNW,291,0.0,0.0,96,0.00,,SKC,0.00,0.00,VWS V14.01,2013-06-24 07:56:00,
2013-06-24 03:57:00,67.7,66.5,30.13,WNW,291,0.0,0.0,96,0.00,,SKC,0.00,0.00,VWS V14.01,2013-06-24 07:57:00,
2013-06-24 03:59:00,67.7,66.5,30.13,WNW,290,1.0,1.0,96,0.00,,SKC,0.00,0.00,VWS V14.01,2013-06-24 07:59:00,
2013-06-24 04:01:00,67.6,66.4,30.13,WNW,291,1.0,1.0,96,0.00,,SKC,0.00,0.00,VWS V14.01,2013-06-24 08:01:00,
2013-06-24 04:02:00,67.6,66.4,30.13,WNW,291,0.0,1.0,96,0.00,,SKC,0.00,0.00,VWS V14.01,2013-06-24 08:02:00,
2013-06-24 04:04:00,67.6,66.4,30.13,WNW,291,2.0,2.0,96,0.00,,SKC,0.00,0.00,VWS V14.01,2013-06-24 08:04:00,
2013-06-24 04:07:00,67.5,66.3,30.13,WNW,291,2.0,3.0,96,0.00,,SKC,0.00,0.00,VWS V14.01,2013-06-24 08:07:00,
2013-06-24 04:10:00,67.5,66.3,30.14,WNW,291,1.0,3.0,96,0.00,,SKC,0.00,0.00,VWS V14.01,2013-06-24 08:10:00,
2013-06-24 04:12:00,67.5,66.3,30.13,WNW,291,1.0,3.0,96,0.00,,SKC,0.00,0.00,VWS V14.01,2013-06-24 08:12:00,
2013-06-24 04:16:00,67.4,66.2,30.14,WNW,291,2.0,3.0,96,0.00,,SKC,0.00,0.00,VWS V14.01,2013-06-24 08:16:00,
2013-06-24 04:17:00,67.4,66.2,30.14,WNW,291,0.0,3.0,96,0.00,,SKC,0.00,0.00,VWS V14.01,2013-06-24 08:17:00,
2013-06-24 04:18:00,67.4,66.2,30.14,WNW,291,1.0,3.0,96,0.00,,SKC,0.00,0.00,VWS V14.01,2013-06-24 08:18:00,
2013-06-24 04:22:00,67.4,66.5,30.14,WNW,291,0.0,3.0,97,0.00,,SKC,0.00,0.00,VWS V14.01,2013-06-24 08:22:00,
2013-06-24 04:23:00,67.4,66.5,30.14,WNW,291,0.0,3.0,97,0.00,,SKC,0.00,0.00,VWS V14.01,2013-06-24 08:23:00,
2013-06-24 04:24:00,67.4,66.5,30.14,WNW,291,0.0,3.0,97,0.00,,SKC,0.00,0.00,VWS V14.01,2013-06-24 08:24:00,
2013-06-24 04:27:00,67.5,66.6,30.14,WNW,291,0.0,3.0,97,0.00,,SKC,0.00,0.00,VWS V14.01,2013-06-24 08:27:00,
2013-06-24 04:28:00,67.5,66.6,30.14,WNW,291,0.0,3.0,97,0.00,,SKC,0.00,0.00,VWS V14.01,2013-06-24 08:28:00,
2013-06-24 04:29:00,67.5,66.6,30.14,WNW,291,0.0,3.0,97,0.00,,SKC,0.00,0.00,VWS V14.01,2013-06-24 08:29:00,
2013-06-24 04:32:00,67.5,66.6,30.14,WNW,291,0.0,0.0,97,0.00,,SKC,0.00,0.00,VWS V14.01,2013-06-24 08:32:00,
2013-06-24 04:33:00,67.4,66.5,30.14,WNW,291,0.0,0.0,97,0.00,,SKC,0.00,0.00,VWS V14.01,2013-06-24 08:33:00,
2013-06-24 04:34:00,67.4,66.5,30.14,WNW,291,0.0,0.0,97,0.00,,SKC,0.00,0.00,VWS V14.01,2013-06-24 08:34:00,
2013-06-24 04:37:00,67.4,66.5,30.14,WNW,291,0.0,0.0,97,0.00,,SKC,0.00,0.00,VWS V14.01,2013-06-24 08:37:00,
2013-06-24 04:38:00,67.4,66.5,30.14,WNW,291,0.0,0.0,97,0.00,,SKC,0.00,0.00,VWS V14.01,2013-06-24 08:38:00,
2013-06-24 04:39:00,67.4,66.5,30.14,WNW,291,0.0,0.0,97,0.00,,SKC,0.00,0.00,VWS V14.01,2013-06-24 08:39:00,
2013-06-24 04:40:00,67.4,66.5,30.14,WNW,291,0.0,0.0,97,0.00,,SKC,0.00,0.00,VWS V14.01,2013-06-24 08:40:00,
2013-06-24 04:42:00,67.4,66.5,30.14,WNW,291,0.0,0.0,97,0.00,,SKC,0.00,0.00,VWS V14.01,2013-06-24 08:42:00,
2013-06-24 04:43:00,67.3,66.4,30.14,WNW,291,0.0,0.0,97,0.00,,SKC,0.00,0.00,VWS V14.01,2013-06-24 08:43:00,
2013-06-24 04:44:00,67.3,66.4,30.14,WNW,291,0.0,0.0,97,0.00,,SKC,0.00,0.00,VWS V14.01,2013-06-24 08:44:00,
2013-06-24 04:45:00,67.3,66.4,30.14,WNW,291,0.0,0.0,97,0.00,,SKC,0.00,0.00,VWS V14.01,2013-06-24 08:45:00,
2013-06-24 04:47:00,67.3,66.4,30.14,WNW,291,0.0,0.0,97,0.00,,SKC,0.00,0.00,VWS V14.01,2013-06-24 08:47:00,
2013-06-24 04:48:00,67.2,66.3,30.14,WNW,291,0.0,0.0,97,0.00,,SKC,0.00,0.00,VWS V14.01,2013-06-24 08:48:00,
2013-06-24 04:50:00,67.2,66.3,30.14,WNW,291,0.0,0.0,97,0.00,,SKC,0.00,0.00,VWS V14.01,2013-06-24 08:50:00,
2013-06-24 04:51:00,67.2,66.3,30.14,WNW,291,0.0,0.0,97,0.00,,SKC,0.00,0.00,VWS V14.01,2013-06-24 08:51:00,
2013-06-24 04:52:00,67.2,66.3,30.14,WNW,291,0.0,0.0,97,0.00,,SKC,0.00,0.00,VWS V14.01,2013-06-24 08:52:00,
2013-06-24 04:54:00,67.2,66.3,30.14,WNW,291,0.0,0.0,97,0.00,,SKC,0.00,0.00,VWS V14.01,2013-06-24 08:54:00,
2013-06-24 04:55:00,67.1,66.2,30.14,WNW,291,0.0,0.0,97,0.00,,SKC,0.00,0.00,VWS V14.01,2013-06-24 08:55:00,
2013-06-24 04:56:00,67.1,66.2,30.14,WNW,291,0.0,0.0,97,0.00,,SKC,0.00,0.00,VWS V14.01,2013-06-24 08:56:00,
2013-06-24 04:58:00,67.1,66.2,30.14,WNW,290,0.0,0.0,97,0.00,,SKC,0.00,0.00,VWS V14.01,2013-06-24 08:58:00,
2013-06-24 04:59:00,67.1,66.2,30.14,WNW,290,0.0,0.0,97,0.00,,SKC,0.00,0.00,VWS V14.01,2013-06-24 08:59:00,
2013-06-24 05:01:00,67.1,66.2,30.14,WNW,291,0.0,0.0,97,0.00,,SKC,0.00,0.00,VWS V14.01,2013-06-24 09:01:00,
2013-06-24 05:03:00,67.2,66.3,30.14,WNW,291,0.0,0.0,97,0.00,,SKC,0.00,0.00,VWS V14.01,2013-06-24 09:03:00,
2013-06-24 05:04:00,67.2,66.3,30.14,WNW,291,0.0,0.0,97,0.00,,SKC,0.00,0.00,VWS V14.01,2013-06-24 09:04:00,
2013-06-24 05:06:00,67.2,66.3,30.14,WNW,291,0.0,0.0,97,0.00,,SKC,0.00,0.00,VWS V14.01,2013-06-24 09:06:00,
2013-06-24 05:08:00,67.1,66.2,30.14,WNW,291,0.0,0.0,97,0.00,,SKC,0.00,0.00,VWS V14.01,2013-06-24 09:08:00,
2013-06-24 05:09:00,67.1,66.2,30.14,WNW,291,0.0,0.0,97,0.00,,SKC,0.00,0.00,VWS V14.01,2013-06-24 09:09:00,
2013-06-24 05:11:00,67.1,66.2,30.14,WNW,291,0.0,0.0,97,0.00,,SKC,0.00,0.00,VWS V14.01,2013-06-24 09:11:00,
2013-06-24 05:13:00,67.0,66.1,30.14,WNW,291,0.0,0.0,97,0.00,,SKC,0.00,0.00,VWS V14.01,2013-06-24 09:13:00,
2013-06-24 05:15:00,67.0,66.1,30.14,WNW,291,0.0,0.0,97,0.00,,SKC,0.00,0.00,VWS V14.01,2013-06-24 09:15:00,
2013-06-24 05:17:00,67.0,66.1,30.14,WNW,291,0.0,0.0,97,0.00,,SKC,0.00,0.00,VWS V14.01,2013-06-24 09:17:00,
2013-06-24 05:18:00,67.0,66.1,30.14,WNW,291,0.0,0.0,97,0.00,,SKC,0.00,0.00,VWS V14.01,2013-06-24 09:18:00,
2013-06-24 05:21:00,67.0,66.1,30.14,WNW,291,0.0,0.0,97,0.00,,SKC,0.00,0.00,VWS V14.01,2013-06-24 09:21:00,
2013-06-24 05:22:00,66.9,66.0,30.14,WNW,291,0.0,0.0,97,0.00,,SKC,0.00,0.00,VWS V14.01,2013-06-24 09:22:00,
2013-06-24 05:23:00,66.9,66.0,30.14,WNW,291,0.0,0.0,97,0.00,,SKC,0.00,0.00,VWS V14.01,2013-06-24 09:23:00,
2013-06-24 05:26:00,66.9,66.0,30.14,WNW,291,0.0,0.0,97,0.00,,SKC,0.00,0.00,VWS V14.01,2013-06-24 09:26:00,
2013-06-24 05:28:00,66.9,66.0,30.14,WNW,291,1.0,2.0,97,0.00,,SKC,0.00,0.00,VWS V14.01,2013-06-24 09:28:00,
2013-06-24 05:31:00,66.9,66.0,30.14,WNW,291,0.0,2.0,97,0.00,,SKC,0.00,0.00,VWS V14.01,2013-06-24 09:31:00,
2013-06-24 05:34:00,66.8,65.9,30.14,WNW,291,0.0,0.0,97,0.00,,SKC,0.00,0.00,VWS V14.01,2013-06-24 09:34:00,
2013-06-24 05:36:00,66.8,65.9,30.14,WNW,291,0.0,0.0,97,0.00,,SKC,0.00,0.00,VWS V14.01,2013-06-24 09:36:00,
2013-06-24 05:39:00,66.8,65.9,30.14,WNW,290,0.0,0.0,97,0.00,,SKC,0.00,0.00,VWS V14.01,2013-06-24 09:39:00,
2013-06-24 05:40:00,66.8,65.9,30.14,WNW,290,0.0,0.0,97,0.00,,SKC,0.00,0.00,VWS V14.01,2013-06-24 09:40:00,
2013-06-24 05:41:00,66.9,66.0,30.14,WNW,291,0.0,0.0,97,0.00,,SKC,0.00,0.00,VWS V14.01,2013-06-24 09:41:00,
2013-06-24 05:45:00,66.8,65.9,30.14,WNW,291,0.0,1.0,97,0.00,,SKC,0.00,0.00,VWS V14.01,2013-06-24 09:45:00,
2013-06-24 05:46:00,66.9,66.0,30.15,WNW,291,1.0,1.0,97,0.00,,SKC,0.00,0.00,VWS V14.01,2013-06-24 09:46:00,
2013-06-24 05:47:00,66.9,66.0,30.15,WNW,291,1.0,1.0,97,0.00,,SKC,0.00,0.00,VWS V14.01,2013-06-24 09:47:00,
2013-06-24 05:50:00,66.9,66.0,30.14,WNW,291,0.0,2.0,97,0.00,,SKC,0.00,0.00,VWS V14.01,2013-06-24 09:50:00,
2013-06-24 05:51:00,66.8,65.9,30.15,WNW,291,0.0,2.0,97,0.00,,SKC,0.00,0.00,VWS V14.01,2013-06-24 09:51:00,
2013-06-24 05:52:00,66.8,65.9,30.15,WNW,290,0.0,2.0,97,0.00,,SKC,0.00,0.00,VWS V14.01,2013-06-24 09:52:00,
2013-06-24 05:56:00,66.9,66.3,30.14,WNW,291,0.0,2.0,98,0.00,,SKC,0.00,0.00,VWS V14.01,2013-06-24 09:56:00,
2013-06-24 05:58:00,66.8,65.9,30.15,WNW,291,0.0,2.0,97,0.00,,SKC,0.00,0.00,VWS V14.01,2013-06-24 09:58:00,
2013-06-24 06:01:00,66.7,65.8,30.15,WNW,291,0.0,2.0,97,0.00,,SKC,0.00,0.00,VWS V14.01,2013-06-24 10:01:00,
2013-06-24 06:02:00,66.6,65.7,30.15,WNW,291,0.0,0.0,97,0.00,,SKC,0.00,0.00,VWS V14.01,2013-06-24 10:02:00,
2013-06-24 06:03:00,66.6,65.7,30.15,WNW,291,0.0,0.0,97,0.00,,SKC,0.00,5.00,VWS V14.01,2013-06-24 10:03:00,
2013-06-24 06:06:00,66.6,66.0,30.15,WNW,291,0.0,0.0,98,0.00,,SKC,0.00,5.00,VWS V14.01,2013-06-24 10:06:00,
2013-06-24 06:08:00,66.6,66.0,30.15,WNW,291,0.0,0.0,98,0.00,,SKC,0.00,7.00,VWS V14.01,2013-06-24 10:08:00,
2013-06-24 06:11:00,66.6,66.0,30.15,WNW,291,0.0,0.0,98,0.00,,SKC,0.00,9.00,VWS V14.01,2013-06-24 10:11:00,
2013-06-24 06:12:00,66.6,66.0,30.15,WNW,291,0.0,0.0,98,0.00,,SKC,0.00,11.00,VWS V14.01,2013-06-24 10:12:00,
2013-06-24 06:13:00,66.5,65.9,30.15,WNW,291,0.0,0.0,98,0.00,,SKC,0.00,11.00,VWS V14.01,2013-06-24 10:13:00,
2013-06-24 06:14:00,66.5,65.9,30.15,WNW,291,0.0,0.0,98,0.00,,SKC,0.00,11.00,VWS V14.01,2013-06-24 10:14:00,
2013-06-24 06:16:00,66.5,65.9,30.15,WNW,291,0.0,0.0,98,0.00,,SKC,0.00,12.00,VWS V14.01,2013-06-24 10:16:00,
2013-06-24 06:17:00,66.5,65.9,30.15,WNW,291,0.0,0.0,98,0.00,,SKC,0.00,12.00,VWS V14.01,2013-06-24 10:17:00,
2013-06-24 06:19:00,66.5,65.9,30.15,WNW,291,0.0,0.0,98,0.00,,SKC,0.00,14.00,VWS V14.01,2013-06-24 10:19:00,
2013-06-24 06:21:00,66.5,65.9,30.15,WNW,291,0.0,0.0,98,0.00,,SKC,0.00,16.00,VWS V14.01,2013-06-24 10:21:00,
2013-06-24 06:23:00,66.5,65.9,30.15,WNW,291,0.0,0.0,98,0.00,,SKC,0.00,18.00,VWS V14.01,2013-06-24 10:23:00,
2013-06-24 06:24:00,66.6,66.0,30.14,WNW,291,0.0,1.0,98,0.00,,SKC,0.00,18.00,VWS V14.01,2013-06-24 10:24:00,
2013-06-24 06:26:00,66.6,66.0,30.15,WNW,291,0.0,1.0,98,0.00,,SKC,0.00,21.00,VWS V14.01,2013-06-24 10:26:00,
2013-06-24 06:28:00,66.6,66.0,30.15,WNW,291,0.0,1.0,98,0.00,,SKC,0.00,21.00,VWS V14.01,2013-06-24 10:28:00,
2013-06-24 06:29:00,66.6,66.0,30.15,WNW,291,0.0,1.0,98,0.00,,SKC,0.00,25.00,VWS V14.01,2013-06-24 10:29:00,
2013-06-24 06:30:00,66.6,66.0,30.15,WNW,291,0.0,1.0,98,0.00,,SKC,0.00,25.00,VWS V14.01,2013-06-24 10:30:00,
2013-06-24 06:31:00,66.6,66.0,30.15,WNW,291,0.0,0.0,98,0.00,,SKC,0.00,26.00,VWS V14.01,2013-06-24 10:31:00,
2013-06-24 06:33:00,66.6,66.0,30.15,WNW,291,0.0,0.0,98,0.00,,SKC,0.00,28.00,VWS V14.01,2013-06-24 10:33:00,
2013-06-24 06:34:00,66.6,66.0,30.15,WNW,291,0.0,1.0,98,0.00,,SKC,0.00,28.00,VWS V14.01,2013-06-24 10:34:00,
2013-06-24 06:36:00,66.6,66.0,30.15,WNW,290,0.0,1.0,98,0.00,,SKC,0.00,30.00,VWS V14.01,2013-06-24 10:36:00,
2013-06-24 06:37:00,66.6,66.0,30.15,WNW,291,0.0,1.0,98,0.00,,SKC,0.00,32.00,VWS V14.01,2013-06-24 10:37:00,
2013-06-24 06:38:00,66.6,66.0,30.15,WNW,291,0.0,1.0,98,0.00,,SKC,0.00,32.00,VWS V14.01,2013-06-24 10:38:00,
2013-06-24 06:40:00,66.6,66.0,30.15,WNW,291,0.0,1.0,98,0.00,,SKC,0.00,33.00,VWS V14.01,2013-06-24 10:40:00,
2013-06-24 06:42:00,66.6,66.0,30.15,WNW,291,0.0,1.0,98,0.00,,SKC,0.00,33.00,VWS V14.01,2013-06-24 10:42:00,
2013-06-24 06:43:00,66.6,66.0,30.15,WNW,291,0.0,1.0,98,0.00,,SKC,0.00,35.00,VWS V14.01,2013-06-24 10:43:00,
2013-06-24 06:44:00,66.6,66.0,30.15,WNW,291,0.0,1.0,98,0.00,,SKC,0.00,35.00,VWS V14.01,2013-06-24 10:44:00,
2013-06-24 06:46:00,66.7,66.1,30.15,WNW,291,0.0,1.0,98,0.00,,SKC,0.00,37.00,VWS V14.01,2013-06-24 10:46:00,
2013-06-24 06:47:00,66.7,66.1,30.15,WNW,291,0.0,1.0,98,0.00,,SKC,0.00,39.00,VWS V14.01,2013-06-24 10:47:00,
2013-06-24 06:48:00,66.8,66.2,30.15,WNW,291,0.0,1.0,98,0.00,,SKC,0.00,40.00,VWS V14.01,2013-06-24 10:48:00,
2013-06-24 06:50:00,66.8,66.2,30.15,WNW,291,0.0,1.0,98,0.00,,SKC,0.00,42.00,VWS V14.01,2013-06-24 10:50:00,
2013-06-24 06:51:00,66.9,66.3,30.15,WNW,291,0.0,1.0,98,0.00,,SKC,0.00,44.00,VWS V14.01,2013-06-24 10:51:00,
2013-06-24 06:52:00,66.9,66.3,30.15,WNW,291,0.0,1.0,98,0.00,,SKC,0.00,47.00,VWS V14.01,2013-06-24 10:52:00,
2013-06-24 06:53:00,66.9,66.3,30.15,WNW,291,0.0,1.0,98,0.00,,SKC,0.00,49.00,VWS V14.01,2013-06-24 10:53:00,
2013-06-24 06:56:00,67.0,66.4,30.15,WNW,291,0.0,1.0,98,0.00,,SKC,0.00,53.00,VWS V14.01,2013-06-24 10:56:00,
2013-06-24 06:57:00,67.0,66.4,30.15,WNW,291,0.0,1.0,98,0.00,,SKC,0.00,54.00,VWS V14.01,2013-06-24 10:57:00,
2013-06-24 06:58:00,67.1,66.5,30.15,WNW,291,0.0,1.0,98,0.00,,SKC,0.00,58.00,VWS V14.01,2013-06-24 10:58:00,
2013-06-24 07:01:00,67.2,66.6,30.15,WNW,291,0.0,0.0,98,0.00,,SKC,0.00,62.00,VWS V14.01,2013-06-24 11:01:00,
2013-06-24 07:02:00,67.2,66.6,30.15,WNW,291,0.0,0.0,98,0.00,,SKC,0.00,63.00,VWS V14.01,2013-06-24 11:02:00,
2013-06-24 07:04:00,67.4,66.8,30.15,WNW,291,0.0,0.0,98,0.00,,SKC,0.00,69.00,VWS V14.01,2013-06-24 11:04:00,
2013-06-24 07:06:00,67.4,66.8,30.15,WNW,291,0.0,0.0,98,0.00,,SKC,0.00,74.00,VWS V14.01,2013-06-24 11:06:00,
2013-06-24 07:07:00,67.5,66.9,30.15,WNW,291,0.0,0.0,98,0.00,,SKC,0.00,77.00,VWS V14.01,2013-06-24 11:07:00,
2013-06-24 07:08:00,67.5,66.9,30.15,WNW,291,0.0,0.0,98,0.00,,SKC,0.00,81.00,VWS V14.01,2013-06-24 11:08:00,
2013-06-24 07:10:00,67.6,67.0,30.15,WNW,291,0.0,0.0,98,0.00,,SKC,0.00,83.00,VWS V14.01,2013-06-24 11:10:00,
2013-06-24 07:11:00,67.7,67.1,30.15,WNW,291,0.0,0.0,98,0.00,,SKC,0.00,86.00,VWS V14.01,2013-06-24 11:11:00,
2013-06-24 07:12:00,67.8,67.2,30.15,WNW,291,0.0,0.0,98,0.00,,SKC,0.00,90.00,VWS V14.01,2013-06-24 11:12:00,
2013-06-24 07:13:00,67.9,67.3,30.15,WNW,291,0.0,0.0,98,0.00,,SKC,0.00,90.00,VWS V14.01,2013-06-24 11:13:00,
2013-06-24 07:15:00,68.0,67.4,30.15,WNW,291,0.0,0.0,98,0.00,,SKC,0.00,98.00,VWS V14.01,2013-06-24 11:15:00,
2013-06-24 07:17:00,68.1,67.5,30.15,WNW,291,0.0,0.0,98,0.00,,SKC,0.00,102.00,VWS V14.01,2013-06-24 11:17:00,
2013-06-24 07:19:00,68.2,67.6,30.15,WNW,291,0.0,0.0,98,0.00,,SKC,0.00,100.00,VWS V14.01,2013-06-24 11:19:00,
2013-06-24 07:21:00,68.3,67.7,30.15,WNW,291,0.0,0.0,98,0.00,,SKC,0.00,105.00,VWS V14.01,2013-06-24 11:21:00,
2013-06-24 07:22:00,68.3,67.7,30.15,WNW,291,0.0,0.0,98,0.00,,SKC,0.00,107.00,VWS V14.01,2013-06-24 11:22:00,
2013-06-24 07:23:00,68.4,67.8,30.15,WNW,291,0.0,0.0,98,0.00,,SKC,0.00,111.00,VWS V14.01,2013-06-24 11:23:00,
2013-06-24 07:24:00,68.4,67.8,30.15,WNW,291,0.0,0.0,98,0.00,,SKC,0.00,113.00,VWS V14.01,2013-06-24 11:24:00,
2013-06-24 07:26:00,68.4,67.8,30.15,WNW,291,0.0,0.0,98,0.00,,SKC,0.00,116.00,VWS V14.01,2013-06-24 11:26:00,
2013-06-24 07:27:00,68.5,67.9,30.15,WNW,291,0.0,0.0,98,0.00,,SKC,0.00,120.00,VWS V14.01,2013-06-24 11:27:00,
2013-06-24 07:28:00,68.5,67.9,30.15,WNW,291,0.0,0.0,98,0.00,,SKC,0.00,125.00,VWS V14.01,2013-06-24 11:28:00,
2013-06-24 07:30:00,68.6,68.0,30.15,WNW,291,0.0,0.0,98,0.00,,SKC,0.00,127.00,VWS V14.01,2013-06-24 11:30:00,
2013-06-24 07:31:00,68.7,68.1,30.15,WNW,291,0.0,0.0,98,0.00,,SKC,0.00,134.00,VWS V14.01,2013-06-24 11:31:00,
2013-06-24 07:33:00,68.8,68.2,30.15,WNW,291,0.0,0.0,98,0.00,,SKC,0.00,137.00,VWS V14.01,2013-06-24 11:33:00,
2013-06-24 07:34:00,68.8,68.2,30.15,WNW,291,0.0,0.0,98,0.00,,SKC,0.00,139.00,VWS V14.01,2013-06-24 11:34:00,
2013-06-24 07:35:00,69.0,68.4,30.15,WNW,291,0.0,0.0,98,0.00,,SKC,0.00,142.00,VWS V14.01,2013-06-24 11:35:00,
2013-06-24 07:36:00,69.1,68.5,30.15,WNW,291,0.0,0.0,98,0.00,,SKC,0.00,146.00,VWS V14.01,2013-06-24 11:36:00,
2013-06-24 07:38:00,69.2,68.6,30.15,WNW,291,0.0,0.0,98,0.00,,SKC,0.00,151.00,VWS V14.01,2013-06-24 11:38:00,
2013-06-24 07:39:00,69.3,68.7,30.15,WNW,291,0.0,0.0,98,0.00,,SKC,0.00,156.00,VWS V14.01,2013-06-24 11:39:00,
2013-06-24 07:40:00,69.4,68.8,30.15,WNW,291,0.0,0.0,98,0.00,,SKC,0.00,156.00,VWS V14.01,2013-06-24 11:40:00,
2013-06-24 07:42:00,69.5,68.9,30.15,WNW,291,0.0,0.0,98,0.00,,SKC,0.00,162.00,VWS V14.01,2013-06-24 11:42:00,
2013-06-24 07:43:00,69.6,69.0,30.15,WNW,291,0.0,1.0,98,0.00,,SKC,0.00,167.00,VWS V14.01,2013-06-24 11:43:00,
2013-06-24 07:45:00,69.8,69.2,30.15,WNW,291,1.0,1.0,98,0.00,,SKC,0.00,172.00,VWS V14.01,2013-06-24 11:45:00,
2013-06-24 07:47:00,69.9,69.3,30.15,South,186,2.0,3.0,98,0.00,,SKC,0.00,179.00,VWS V14.01,2013-06-24 11:47:00,
2013-06-24 07:48:00,70.0,69.4,30.15,South,186,1.0,3.0,98,0.00,,SKC,0.00,183.00,VWS V14.01,2013-06-24 11:48:00,
2013-06-24 07:50:00,70.1,69.5,30.15,South,182,0.0,3.0,98,0.00,,SKC,0.00,188.00,VWS V14.01,2013-06-24 11:50:00,
2013-06-24 07:52:00,70.3,69.4,30.15,South,182,0.0,3.0,97,0.00,,SKC,0.00,195.00,VWS V14.01,2013-06-24 11:52:00,
2013-06-24 07:54:00,70.4,69.5,30.15,South,182,0.0,3.0,97,0.00,,SKC,0.00,200.00,VWS V14.01,2013-06-24 11:54:00,
2013-06-24 07:55:00,70.4,69.5,30.15,South,182,0.0,3.0,97,0.00,,SKC,0.00,204.00,VWS V14.01,2013-06-24 11:55:00,
2013-06-24 07:56:00,70.5,69.6,30.15,South,182,0.0,3.0,97,0.00,,SKC,0.00,204.00,VWS V14.01,2013-06-24 11:56:00,
2013-06-24 07:58:00,70.6,69.7,30.15,South,182,0.0,3.0,97,0.00,,SKC,0.00,209.00,VWS V14.01,2013-06-24 11:58:00,
2013-06-24 07:59:00,70.7,69.8,30.15,South,182,0.0,3.0,97,0.00,,SKC,0.00,214.00,VWS V14.01,2013-06-24 11:59:00,
2013-06-24 08:01:00,70.8,69.9,30.15,South,182,0.0,3.0,97,0.00,,SKC,0.00,220.00,VWS V14.01,2013-06-24 12:01:00,
2013-06-24 08:04:00,71.2,70.3,30.15,South,182,0.0,0.0,97,0.00,,SKC,0.00,232.00,VWS V14.01,2013-06-24 12:04:00,
2013-06-24 08:06:00,71.3,70.1,30.15,South,182,0.0,0.0,96,0.00,,SKC,0.00,213.00,VWS V14.01,2013-06-24 12:06:00,
2013-06-24 08:10:00,71.5,70.3,30.15,South,182,0.0,0.0,96,0.00,,SKC,0.00,262.00,VWS V14.01,2013-06-24 12:10:00,
2013-06-24 08:11:00,71.7,70.2,30.15,South,182,0.0,0.0,95,0.00,,SKC,0.00,178.00,VWS V14.01,2013-06-24 12:11:00,
2013-06-24 08:12:00,71.7,70.2,30.15,South,182,0.0,0.0,95,0.00,,SKC,0.00,230.00,VWS V14.01,2013-06-24 12:12:00,
2013-06-24 08:15:00,72.1,70.6,30.15,South,182,0.0,0.0,95,0.00,,SKC,0.00,130.00,VWS V14.01,2013-06-24 12:15:00,
2013-06-24 08:16:00,72.2,70.4,30.15,South,182,0.0,0.0,94,0.00,,SKC,0.00,118.00,VWS V14.01,2013-06-24 12:16:00,
2013-06-24 08:17:00,72.3,70.5,30.15,South,182,0.0,0.0,94,0.00,,SKC,0.00,118.00,VWS V14.01,2013-06-24 12:17:00,
2013-06-24 08:20:00,72.4,70.3,30.15,South,182,0.0,0.0,93,0.00,,SKC,0.00,120.00,VWS V14.01,2013-06-24 12:20:00,
2013-06-24 08:21:00,72.4,70.3,30.16,South,182,0.0,0.0,93,0.00,,SKC,0.00,120.00,VWS V14.01,2013-06-24 12:21:00,
2013-06-24 08:23:00,72.5,70.4,30.16,South,182,0.0,0.0,93,0.00,,SKC,0.00,114.00,VWS V14.01,2013-06-24 12:23:00,
2013-06-24 08:25:00,72.6,70.2,30.16,South,182,0.0,0.0,92,0.00,,SKC,0.00,109.00,VWS V14.01,2013-06-24 12:25:00,
2013-06-24 08:26:00,72.6,70.2,30.16,South,182,0.0,0.0,92,0.00,,SKC,0.00,109.00,VWS V14.01,2013-06-24 12:26:00,
2013-06-24 08:27:00,72.6,70.2,30.16,South,182,0.0,0.0,92,0.00,,SKC,0.00,105.00,VWS V14.01,2013-06-24 12:27:00,
2013-06-24 08:29:00,72.4,69.9,30.16,South,182,0.0,1.0,92,0.00,,SKC,0.00,98.00,VWS V14.01,2013-06-24 12:29:00,
2013-06-24 08:31:00,72.2,69.8,30.16,South,182,0.0,1.0,92,0.00,,SKC,0.00,93.00,VWS V14.01,2013-06-24 12:31:00,
2013-06-24 08:32:00,72.1,69.7,30.16,South,182,0.0,0.0,92,0.00,,SKC,0.00,97.00,VWS V14.01,2013-06-24 12:32:00,
2013-06-24 08:34:00,71.9,69.4,30.16,South,182,0.0,2.0,92,0.00,,SKC,0.00,105.00,VWS V14.01,2013-06-24 12:34:00,
2013-06-24 08:36:00,71.8,69.3,30.16,South,182,0.0,2.0,92,0.00,,SKC,0.00,171.00,VWS V14.01,2013-06-24 12:36:00,
2013-06-24 08:37:00,71.8,69.7,30.16,South,182,0.0,2.0,93,0.00,,SKC,0.00,260.00,VWS V14.01,2013-06-24 12:37:00,
2013-06-24 08:39:00,71.8,69.7,30.16,South,182,0.0,2.0,93,0.00,,SKC,0.00,308.00,VWS V14.01,2013-06-24 12:39:00,
2013-06-24 08:41:00,72.0,69.9,30.16,South,182,0.0,2.0,93,0.00,,SKC,0.00,325.00,VWS V14.01,2013-06-24 12:41:00,
2013-06-24 08:42:00,72.1,70.0,30.16,South,182,0.0,2.0,93,0.00,,SKC,0.00,283.00,VWS V14.01,2013-06-24 12:42:00,
2013-06-24 08:44:00,72.4,70.6,30.16,South,182,0.0,2.0,94,0.00,,SKC,0.00,299.00,VWS V14.01,2013-06-24 12:44:00,
2013-06-24 08:47:00,72.9,70.4,30.16,South,182,0.0,2.0,92,0.00,,SKC,0.00,459.00,VWS V14.01,2013-06-24 12:47:00,
2013-06-24 08:49:00,73.2,70.4,30.16,South,182,0.0,2.0,91,0.00,,SKC,0.00,478.00,VWS V14.01,2013-06-24 12:49:00,
2013-06-24 08:53:00,73.5,70.4,30.16,South,182,0.0,2.0,90,0.00,,SKC,0.00,241.00,VWS V14.01,2013-06-24 12:53:00,
2013-06-24 08:54:00,73.7,70.6,30.15,South,186,0.0,2.0,90,0.00,,SKC,0.00,216.00,VWS V14.01,2013-06-24 12:54:00,
2013-06-24 08:55:00,73.8,70.7,30.15,South,186,0.0,2.0,90,0.00,,SKC,0.00,216.00,VWS V14.01,2013-06-24 12:55:00,
2013-06-24 08:58:00,74.2,71.1,30.16,SSW,198,0.0,2.0,90,0.00,,SKC,0.00,214.00,VWS V14.01,2013-06-24 12:58:00,
2013-06-24 09:00:00,74.6,71.2,30.16,SSW,198,0.0,2.0,89,0.00,,SKC,0.00,352.00,VWS V14.01,2013-06-24 13:00:00,
2013-06-24 09:03:00,75.2,71.4,30.15,SSW,198,0.0,0.0,88,0.00,,SKC,0.00,316.00,VWS V14.01,2013-06-24 13:03:00,
2013-06-24 09:05:00,75.5,71.7,30.15,SSW,198,0.0,0.0,88,0.00,,SKC,0.00,271.00,VWS V14.01,2013-06-24 13:05:00,
2013-06-24 09:08:00,75.7,71.9,30.16,SSW,198,0.0,1.0,88,0.00,,SKC,0.00,225.00,VWS V14.01,2013-06-24 13:08:00,
2013-06-24 09:10:00,75.9,71.8,30.15,SSW,198,0.0,1.0,87,0.00,,SKC,0.00,220.00,VWS V14.01,2013-06-24 13:10:00,
2013-06-24 09:13:00,76.1,71.9,30.15,SSW,198,1.0,1.0,87,0.00,,SKC,0.00,241.00,VWS V14.01,2013-06-24 13:13:00,
2013-06-24 09:15:00,76.2,72.1,30.15,SSW,198,0.0,1.0,87,0.00,,SKC,0.00,257.00,VWS V14.01,2013-06-24 13:15:00,
2013-06-24 09:16:00,76.2,71.7,30.15,SSW,198,0.0,1.0,86,0.00,,SKC,0.00,327.00,VWS V14.01,2013-06-24 13:16:00,
2013-06-24 09:18:00,76.5,72.0,30.15,SSW,198,0.0,1.0,86,0.00,,SKC,0.00,429.00,VWS V14.01,2013-06-24 13:18:00,
2013-06-24 09:20:00,77.0,72.8,30.15,SSW,198,0.0,1.0,87,0.00,,SKC,0.00,332.00,VWS V14.01,2013-06-24 13:20:00,
2013-06-24 09:21:00,77.0,72.8,30.15,SSW,198,0.0,1.0,87,0.00,,SKC,0.00,332.00,VWS V14.01,2013-06-24 13:21:00,
2013-06-24 09:25:00,76.7,71.9,30.15,SSW,198,0.0,1.0,85,0.00,,SKC,0.00,318.00,VWS V14.01,2013-06-24 13:25:00,
2013-06-24 09:26:00,76.6,71.8,30.15,SSW,198,0.0,1.0,85,0.00,,SKC,0.00,315.00,VWS V14.01,2013-06-24 13:26:00,
2013-06-24 09:31:00,76.7,71.5,30.15,WSW,238,0.0,3.0,84,0.00,,SKC,0.00,302.00,VWS V14.01,2013-06-24 13:31:00,
2013-06-24 09:36:00,77.1,71.5,30.15,WSW,238,0.0,0.0,83,0.00,,SKC,0.00,304.00,VWS V14.01,2013-06-24 13:36:00,
2013-06-24 09:37:00,77.1,71.5,30.15,WSW,238,0.0,0.0,83,0.00,,SKC,0.00,304.00,VWS V14.01,2013-06-24 13:37:00,
2013-06-24 09:41:00,77.4,71.5,30.15,WSW,239,2.0,2.0,82,0.00,,SKC,0.00,322.00,VWS V14.01,2013-06-24 13:41:00,
2013-06-24 09:42:00,77.4,71.5,30.15,WSW,239,0.0,2.0,82,0.00,,SKC,0.00,322.00,VWS V14.01,2013-06-24 13:42:00,
2013-06-24 09:46:00,77.5,70.5,30.15,South,188,3.0,6.0,79,0.00,,SKC,0.00,373.00,VWS V14.01,2013-06-24 13:46:00,
2013-06-24 09:47:00,77.5,70.5,30.15,South,188,0.0,6.0,79,0.00,,SKC,0.00,373.00,VWS V14.01,2013-06-24 13:47:00,
2013-06-24 09:48:00,77.6,70.6,30.15,South,188,0.0,6.0,79,0.00,,SKC,0.00,763.00,VWS V14.01,2013-06-24 13:48:00,
2013-06-24 09:51:00,78.3,72.4,30.15,South,188,0.0,6.0,82,0.00,,SKC,0.00,652.00,VWS V14.01,2013-06-24 13:51:00,
2013-06-24 09:52:00,78.5,71.4,30.15,NNW,347,3.0,6.0,79,0.00,,SKC,0.00,455.00,VWS V14.01,2013-06-24 13:52:00,
2013-06-24 09:53:00,78.5,71.4,30.15,North,355,0.0,6.0,79,0.00,,SKC,0.00,455.00,VWS V14.01,2013-06-24 13:53:00,
2013-06-24 09:57:00,78.3,70.5,30.15,SSW,207,1.0,6.0,77,0.00,,SKC,0.00,385.00,VWS V14.01,2013-06-24 13:57:00,
2013-06-24 09:58:00,78.2,70.8,30.15,WNW,300,1.0,6.0,78,0.00,,SKC,0.00,385.00,VWS V14.01,2013-06-24 13:58:00,
2013-06-24 09:59:00,78.2,70.4,30.15,SW,215,5.0,6.0,77,0.00,,SKC,0.00,408.00,VWS V14.01,2013-06-24 13:59:00,
2013-06-24 10:02:00,77.8,70.4,30.15,SSW,207,4.0,4.0,78,0.00,,SKC,0.00,464.00,VWS V14.01,2013-06-24 14:02:00,
2013-06-24 10:03:00,77.9,71.2,30.15,SSW,207,1.0,4.0,80,0.00,,SKC,0.00,323.00,VWS V14.01,2013-06-24 14:03:00,
2013-06-24 10:04:00,77.8,70.4,30.16,SSW,207,0.0,4.0,78,0.00,,SKC,0.00,290.00,VWS V14.01,2013-06-24 14:04:00,
2013-06-24 10:07:00,77.7,71.0,30.15,SSW,208,1.0,4.0,80,0.00,,SKC,0.00,262.00,VWS V14.01,2013-06-24 14:07:00,
2013-06-24 10:08:00,77.7,71.0,30.15,NW,316,0.0,4.0,80,0.00,,SKC,0.00,255.00,VWS V14.01,2013-06-24 14:08:00,
2013-06-24 10:10:00,77.8,70.8,30.15,NW,323,3.0,5.0,79,0.00,,SKC,0.00,246.00,VWS V14.01,2013-06-24 14:10:00,
2013-06-24 10:13:00,78.0,71.3,30.16,NW,321,0.0,5.0,80,0.00,,SKC,0.00,243.00,VWS V14.01,2013-06-24 14:13:00,
2013-06-24 10:14:00,78.0,71.0,30.16,NW,306,1.0,5.0,79,0.00,,SKC,0.00,243.00,VWS V14.01,2013-06-24 14:14:00,
2013-06-24 10:15:00,78.0,71.0,30.16,NW,306,0.0,5.0,79,0.00,,SKC,0.00,246.00,VWS V14.01,2013-06-24 14:15:00,
2013-06-24 10:18:00,78.1,71.1,30.16,NW,325,0.0,5.0,79,0.00,,SKC,0.00,257.00,VWS V14.01,2013-06-24 14:18:00,
2013-06-24 10:19:00,78.1,71.1,30.16,NW,325,0.0,5.0,79,0.00,,SKC,0.00,265.00,VWS V14.01,2013-06-24 14:19:00,
2013-06-24 10:20:00,78.1,71.1,30.16,NW,317,4.0,5.0,79,0.00,,SKC,0.00,271.00,VWS V14.01,2013-06-24 14:20:00,
2013-06-24 10:23:00,77.9,70.9,30.16,NW,322,0.0,5.0,79,0.00,,SKC,0.00,283.00,VWS V14.01,2013-06-24 14:23:00,
2013-06-24 10:24:00,77.9,70.9,30.16,West,267,1.0,5.0,79,0.00,,SKC,0.00,285.00,VWS V14.01,2013-06-24 14:24:00,
2013-06-24 10:25:00,77.6,70.2,30.16,SW,224,1.0,5.0,78,0.00,,SKC,0.00,295.00,VWS V14.01,2013-06-24 14:25:00,
2013-06-24 10:28:00,77.3,70.7,30.16,WSW,239,2.0,5.0,80,0.00,,SKC,0.00,322.00,VWS V14.01,2013-06-24 14:28:00,
2013-06-24 10:29:00,77.3,70.7,30.16,WSW,239,3.0,5.0,80,0.00,,SKC,0.00,332.00,VWS V14.01,2013-06-24 14:29:00,
2013-06-24 10:30:00,77.3,70.7,30.16,SW,227,0.0,5.0,80,0.00,,SKC,0.00,343.00,VWS V14.01,2013-06-24 14:30:00,
2013-06-24 10:31:00,77.2,70.6,30.16,SW,227,1.0,5.0,80,0.00,,SKC,0.00,352.00,VWS V14.01,2013-06-24 14:31:00,
2013-06-24 10:33:00,77.3,71.4,30.16,SW,227,0.0,3.0,82,0.00,,SKC,0.00,374.00,VWS V14.01,2013-06-24 14:33:00,
2013-06-24 10:34:00,77.3,71.4,30.16,SW,227,0.0,3.0,82,0.00,,SKC,0.00,374.00,VWS V14.01,2013-06-24 14:34:00,
2013-06-24 10:35:00,77.3,71.4,30.16,SW,227,2.0,3.0,82,0.00,,SKC,0.00,388.00,VWS V14.01,2013-06-24 14:35:00,
2013-06-24 10:36:00,77.3,70.7,30.16,SW,220,3.0,5.0,80,0.00,,SKC,0.00,397.00,VWS V14.01,2013-06-24 14:36:00,
2013-06-24 10:38:00,77.4,70.8,30.16,SW,220,0.0,5.0,80,0.00,,SKC,0.00,424.00,VWS V14.01,2013-06-24 14:38:00,
2013-06-24 10:39:00,77.5,70.8,30.16,SW,220,1.0,5.0,80,0.00,,SKC,0.00,466.00,VWS V14.01,2013-06-24 14:39:00,
2013-06-24 10:40:00,77.5,70.8,30.16,SW,219,2.0,5.0,80,0.00,,SKC,0.00,487.00,VWS V14.01,2013-06-24 14:40:00,
2013-06-24 10:42:00,77.6,71.3,30.16,SW,219,0.0,5.0,81,0.00,,SKC,0.00,487.00,VWS V14.01,2013-06-24 14:42:00,
2013-06-24 10:44:00,78.2,71.5,30.16,SW,219,0.0,5.0,80,0.00,,SKC,0.00,396.00,VWS V14.01,2013-06-24 14:44:00,
2013-06-24 10:45:00,78.4,71.7,30.16,SW,219,0.0,5.0,80,0.00,,SKC,0.00,387.00,VWS V14.01,2013-06-24 14:45:00,
2013-06-24 10:47:00,78.4,71.3,30.16,SW,219,3.0,5.0,79,0.00,,SKC,0.00,376.00,VWS V14.01,2013-06-24 14:47:00,
2013-06-24 10:50:00,78.3,71.3,30.16,SW,219,1.0,5.0,79,0.00,,SKC,0.00,374.00,VWS V14.01,2013-06-24 14:50:00,
2013-06-24 10:51:00,78.3,70.9,30.16,SW,219,1.0,5.0,78,0.00,,SKC,0.00,374.00,VWS V14.01,2013-06-24 14:51:00,
2013-06-24 10:52:00,78.3,70.9,30.16,SW,219,1.0,5.0,78,0.00,,SKC,0.00,380.00,VWS V14.01,2013-06-24 14:52:00,
2013-06-24 10:55:00,78.3,70.9,30.16,SW,219,0.0,5.0,78,0.00,,SKC,0.00,381.00,VWS V14.01,2013-06-24 14:55:00,
2013-06-24 10:56:00,78.3,70.5,30.16,SW,219,1.0,5.0,77,0.00,,SKC,0.00,374.00,VWS V14.01,2013-06-24 14:56:00,
2013-06-24 10:57:00,78.3,70.9,30.16,SW,219,0.0,5.0,78,0.00,,SKC,0.00,369.00,VWS V14.01,2013-06-24 14:57:00,
2013-06-24 11:01:00,78.7,71.6,30.16,NW,315,0.0,5.0,79,0.00,,SKC,0.00,345.00,VWS V14.01,2013-06-24 15:01:00,
2013-06-24 11:02:00,78.7,71.3,30.16,NW,315,1.0,1.0,78,0.00,,SKC,0.00,339.00,VWS V14.01,2013-06-24 15:02:00,
2013-06-24 11:06:00,78.4,71.0,30.17,SW,214,3.0,4.0,78,0.00,,SKC,0.00,343.00,VWS V14.01,2013-06-24 15:06:00,
2013-06-24 11:07:00,78.4,71.0,30.17,SSW,211,1.0,4.0,78,0.00,,SKC,0.00,350.00,VWS V14.01,2013-06-24 15:07:00,
2013-06-24 11:08:00,78.4,71.3,30.17,SSW,211,0.0,4.0,79,0.00,,SKC,0.00,352.00,VWS V14.01,2013-06-24 15:08:00,
2013-06-24 11:11:00,78.4,71.3,30.17,SSW,206,1.0,4.0,79,0.00,,SKC,0.00,348.00,VWS V14.01,2013-06-24 15:11:00,
2013-06-24 11:13:00,78.4,71.3,30.17,SSW,206,3.0,4.0,79,0.00,,SKC,0.00,336.00,VWS V14.01,2013-06-24 15:13:00,
2013-06-24 11:16:00,78.3,71.6,30.17,SSW,196,7.0,7.0,80,0.00,,SKC,0.00,336.00,VWS V14.01,2013-06-24 15:16:00,
2013-06-24 11:18:00,78.3,71.3,30.17,SSW,196,0.0,7.0,79,0.00,,SKC,0.00,346.00,VWS V14.01,2013-06-24 15:18:00,
2013-06-24 11:21:00,78.2,70.8,30.17,SSW,205,5.0,7.0,78,0.00,,SKC,0.00,366.00,VWS V14.01,2013-06-24 15:21:00,
2013-06-24 11:24:00,78.1,71.1,30.17,SSW,211,1.0,7.0,79,0.00,,SKC,0.00,390.00,VWS V14.01,2013-06-24 15:24:00,
2013-06-24 11:25:00,78.1,70.7,30.17,SSW,203,0.0,7.0,78,0.00,,SKC,0.00,446.00,VWS V14.01,2013-06-24 15:25:00,
2013-06-24 11:26:00,78.2,71.2,30.17,SSW,203,0.0,7.0,79,0.00,,SKC,0.00,531.00,VWS V14.01,2013-06-24 15:26:00,
2013-06-24 11:29:00,78.4,71.0,30.17,SSW,204,1.0,7.0,78,0.00,,SKC,0.00,471.00,VWS V14.01,2013-06-24 15:29:00,
2013-06-24 11:30:00,78.5,71.8,30.17,SSW,204,2.0,7.0,80,0.00,,SKC,0.00,471.00,VWS V14.01,2013-06-24 15:30:00,
2013-06-24 11:32:00,78.7,71.3,30.17,SSW,204,0.0,1.0,78,0.00,,SKC,0.00,464.00,VWS V14.01,2013-06-24 15:32:00,
2013-06-24 11:34:00,79.2,72.1,30.17,SSW,207,0.0,1.0,79,0.00,,SKC,0.00,522.00,VWS V14.01,2013-06-24 15:34:00,
2013-06-24 11:35:00,79.3,72.2,30.17,SSW,207,3.0,3.0,79,0.00,,SKC,0.00,529.00,VWS V14.01,2013-06-24 15:35:00,
2013-06-24 11:37:00,79.4,71.2,30.17,SSW,207,1.0,5.0,76,0.00,,SKC,0.00,629.00,VWS V14.01,2013-06-24 15:37:00,
2013-06-24 11:39:00,79.4,71.9,30.17,SSW,207,0.0,5.0,78,0.00,,SKC,0.00,508.00,VWS V14.01,2013-06-24 15:39:00,
2013-06-24 11:40:00,79.4,71.9,30.17,SSW,207,2.0,5.0,78,0.00,,SKC,0.00,508.00,VWS V14.01,2013-06-24 15:40:00,
2013-06-24 11:43:00,79.8,72.7,30.17,SSW,207,0.0,5.0,79,0.00,,SKC,0.00,944.00,VWS V14.01,2013-06-24 15:43:00,
2013-06-24 11:45:00,80.8,72.1,30.16,SSW,201,1.0,5.0,75,0.00,,SKC,0.00,879.00,VWS V14.01,2013-06-24 15:45:00,
2013-06-24 11:48:00,81.4,73.1,30.16,SSW,204,0.0,5.0,76,0.00,,SKC,0.00,791.00,VWS V14.01,2013-06-24 15:48:00,
2013-06-24 11:50:00,81.8,72.7,30.16,North,360,2.0,5.0,74,0.00,,SKC,0.00,788.00,VWS V14.01,2013-06-24 15:50:00,
2013-06-24 11:53:00,82.2,73.5,30.16,West,265,0.0,5.0,75,0.00,,SKC,0.00,809.00,VWS V14.01,2013-06-24 15:53:00,
2013-06-24 11:55:00,83.2,72.8,30.16,West,265,0.0,5.0,71,0.00,,SKC,0.00,851.00,VWS V14.01,2013-06-24 15:55:00,
2013-06-24 11:56:00,83.5,73.5,30.16,West,263,1.0,5.0,72,0.00,,SKC,0.00,861.00,VWS V14.01,2013-06-24 15:56:00,
2013-06-24 11:59:00,82.4,71.2,30.16,SSW,210,2.0,5.0,69,0.00,,SKC,0.00,809.00,VWS V14.01,2013-06-24 15:59:00,
2013-06-24 12:01:00,81.7,72.2,30.16,SSW,205,0.0,5.0,73,0.00,,SKC,0.00,847.00,VWS V14.01,2013-06-24 16:01:00,
2013-06-24 12:02:00,81.9,72.4,30.16,SW,221,0.0,2.0,73,0.00,,SKC,0.00,840.00,VWS V14.01,2013-06-24 16:02:00,
2013-06-24 12:04:00,82.1,71.3,30.16,SSW,213,1.0,5.0,70,0.00,,SKC,0.00,816.00,VWS V14.01,2013-06-24 16:04:00,
2013-06-24 12:06:00,82.0,71.7,30.16,SW,217,1.0,5.0,71,0.00,,SKC,0.00,854.00,VWS V14.01,2013-06-24 16:06:00,
2013-06-24 12:07:00,81.8,71.5,30.16,SW,216,6.0,6.0,71,0.00,,SKC,0.00,819.00,VWS V14.01,2013-06-24 16:07:00,
2013-06-24 12:10:00,81.0,70.7,30.16,SW,215,4.0,7.0,71,0.00,,SKC,0.00,870.00,VWS V14.01,2013-06-24 16:10:00,
2013-06-24 12:11:00,80.9,69.4,30.16,SSW,211,5.0,7.0,68,0.00,,SKC,0.00,870.00,VWS V14.01,2013-06-24 16:11:00,
2013-06-24 12:13:00,80.6,69.9,30.16,SW,218,0.0,7.0,70,0.00,,SKC,0.00,870.00,VWS V14.01,2013-06-24 16:13:00,
2013-06-24 12:15:00,81.2,70.9,30.16,SE,137,1.0,7.0,71,0.00,,SKC,0.00,851.00,VWS V14.01,2013-06-24 16:15:00,
2013-06-24 12:16:00,81.6,72.1,30.16,SE,137,0.0,7.0,73,0.00,,SKC,0.00,851.00,VWS V14.01,2013-06-24 16:16:00,
2013-06-24 12:19:00,82.4,71.6,30.16,SSW,205,1.0,7.0,70,0.00,,SKC,0.00,872.00,VWS V14.01,2013-06-24 16:19:00,
2013-06-24 12:20:00,82.0,71.3,30.16,South,178,0.0,7.0,70,0.00,,SKC,0.00,879.00,VWS V14.01,2013-06-24 16:20:00,
2013-06-24 12:21:00,82.1,70.9,30.16,South,182,4.0,7.0,69,0.00,,SKC,0.00,886.00,VWS V14.01,2013-06-24 16:21:00,
2013-06-24 12:22:00,82.1,70.9,30.16,South,185,2.0,7.0,69,0.00,,SKC,0.00,886.00,VWS V14.01,2013-06-24 16:22:00,
2013-06-24 12:24:00,82.1,70.9,30.16,SSW,209,4.0,7.0,69,0.00,,SKC,0.00,891.00,VWS V14.01,2013-06-24 16:24:00,
2013-06-24 12:25:00,82.0,70.8,30.15,SW,215,0.0,7.0,69,0.00,,SKC,0.00,893.00,VWS V14.01,2013-06-24 16:25:00,
2013-06-24 12:27:00,82.2,71.0,30.16,WSW,248,2.0,7.0,69,0.00,,SKC,0.00,893.00,VWS V14.01,2013-06-24 16:27:00,
2013-06-24 12:29:00,83.2,72.8,30.15,WSW,246,1.0,7.0,71,0.00,,SKC,0.00,877.00,VWS V14.01,2013-06-24 16:29:00,
2013-06-24 12:31:00,83.3,72.1,30.15,WSW,246,0.0,2.0,69,0.00,,SKC,0.00,882.00,VWS V14.01,2013-06-24 16:31:00,
2013-06-24 12:32:00,83.2,71.6,30.15,WSW,245,1.0,2.0,68,0.00,,SKC,0.00,884.00,VWS V14.01,2013-06-24 16:32:00,
2013-06-24 12:34:00,83.7,71.1,30.15,WSW,249,0.0,2.0,66,0.00,,SKC,0.00,879.00,VWS V14.01,2013-06-24 16:34:00,
2013-06-24 12:36:00,83.9,71.3,30.15,WSW,240,0.0,2.0,66,0.00,,SKC,0.00,875.00,VWS V14.01,2013-06-24 16:36:00,
2013-06-24 12:37:00,83.9,70.4,30.15,West,279,1.0,3.0,64,0.00,,SKC,0.00,879.00,VWS V14.01,2013-06-24 16:37:00,
2013-06-24 12:39:00,83.5,70.1,30.15,West,260,3.0,3.0,64,0.00,,SKC,0.00,884.00,VWS V14.01,2013-06-24 16:39:00,
2013-06-24 12:42:00,83.4,72.6,30.15,SW,215,8.0,8.0,70,0.00,,SKC,0.00,884.00,VWS V14.01,2013-06-24 16:42:00,
2013-06-24 12:45:00,82.8,71.2,30.15,SSW,198,0.0,8.0,68,0.00,,SKC,0.00,886.00,VWS V14.01,2013-06-24 16:45:00,
2013-06-24 12:47:00,83.1,71.0,30.15,SSW,194,1.0,8.0,67,0.00,,SKC,0.00,893.00,VWS V14.01,2013-06-24 16:47:00,
2013-06-24 12:48:00,83.1,71.0,30.15,SSW,194,1.0,8.0,67,0.00,,SKC,0.00,893.00,VWS V14.01,2013-06-24 16:48:00,
2013-06-24 12:50:00,82.5,68.6,30.14,SSW,209,5.0,8.0,63,0.00,,SKC,0.00,891.00,VWS V14.01,2013-06-24 16:50:00,
2013-06-24 12:52:00,82.2,70.2,30.14,SSW,211,5.0,8.0,67,0.00,,SKC,0.00,886.00,VWS V14.01,2013-06-24 16:52:00,
2013-06-24 12:53:00,82.3,70.3,30.14,SSW,212,3.0,8.0,67,0.00,,SKC,0.00,889.00,VWS V14.01,2013-06-24 16:53:00,
2013-06-24 12:55:00,82.5,70.0,30.14,SSW,210,0.0,8.0,66,0.00,,SKC,0.00,896.00,VWS V14.01,2013-06-24 16:55:00,
2013-06-24 12:58:00,83.7,71.1,30.14,SSW,211,2.0,8.0,66,0.00,,SKC,0.00,900.00,VWS V14.01,2013-06-24 16:58:00,
2013-06-24 12:59:00,83.6,70.1,30.14,SW,230,0.0,8.0,64,0.00,,SKC,0.00,900.00,VWS V14.01,2013-06-24 16:59:00,
2013-06-24 13:00:00,84.1,71.1,30.14,SW,230,1.0,8.0,65,0.00,,SKC,0.00,898.00,VWS V14.01,2013-06-24 17:00:00,
2013-06-24 13:03:00,84.2,70.2,30.14,South,180,1.0,3.0,63,0.00,,SKC,0.00,904.00,VWS V14.01,2013-06-24 17:03:00,
2013-06-24 13:04:00,84.1,70.2,30.14,SSE,153,2.0,4.0,63,0.00,,SKC,0.00,905.00,VWS V14.01,2013-06-24 17:04:00,
2013-06-24 13:05:00,84.0,70.1,30.13,SSW,206,3.0,4.0,63,0.00,,SKC,0.00,909.00,VWS V14.01,2013-06-24 17:05:00,
2013-06-24 13:09:00,83.9,70.0,30.13,SW,217,1.0,4.0,63,0.00,,SKC,0.00,919.00,VWS V14.01,2013-06-24 17:09:00,
2013-06-24 13:10:00,83.9,70.4,30.13,SW,217,0.0,4.0,64,0.00,,SKC,0.00,926.00,VWS V14.01,2013-06-24 17:10:00,
2013-06-24 13:11:00,83.9,70.4,30.13,SW,217,0.0,4.0,64,0.00,,SKC,0.00,926.00,VWS V14.01,2013-06-24 17:11:00,
2013-06-24 13:15:00,84.3,69.9,30.13,SE,136,3.0,4.0,62,0.00,,SKC,0.00,940.00,VWS V14.01,2013-06-24 17:15:00,
2013-06-24 13:16:00,84.3,71.3,30.13,SSE,165,0.0,4.0,65,0.00,,SKC,0.00,965.00,VWS V14.01,2013-06-24 17:16:00,
2013-06-24 13:20:00,85.1,70.6,30.13,SSE,168,1.0,4.0,62,0.00,,SKC,0.00,1013.00,VWS V14.01,2013-06-24 17:20:00,
2013-06-24 13:21:00,85.1,71.1,30.13,South,175,0.0,4.0,63,0.00,,SKC,0.00,1013.00,VWS V14.01,2013-06-24 17:21:00,
2013-06-24 13:22:00,85.2,71.2,30.13,South,175,0.0,4.0,63,0.00,,SKC,0.00,1013.00,VWS V14.01,2013-06-24 17:22:00,
2013-06-24 13:25:00,84.4,69.5,30.13,West,267,0.0,4.0,61,0.00,,SKC,0.00,494.00,VWS V14.01,2013-06-24 17:25:00,
2013-06-24 13:26:00,83.9,69.0,30.12,West,264,1.0,4.0,61,0.00,,SKC,0.00,374.00,VWS V14.01,2013-06-24 17:26:00,
2013-06-24 13:27:00,83.8,68.9,30.12,West,264,0.0,4.0,61,0.00,,SKC,0.00,374.00,VWS V14.01,2013-06-24 17:27:00,
2013-06-24 13:30:00,83.4,68.6,30.12,West,264,1.0,4.0,61,0.00,,SKC,0.00,345.00,VWS V14.01,2013-06-24 17:30:00,
2013-06-24 13:32:00,83.7,69.3,30.12,West,264,2.0,2.0,62,0.00,,SKC,0.00,350.00,VWS V14.01,2013-06-24 17:32:00,
2013-06-24 13:33:00,83.7,69.3,30.12,West,264,1.0,2.0,62,0.00,,SKC,0.00,348.00,VWS V14.01,2013-06-24 17:33:00,
2013-06-24 13:35:00,83.3,69.4,30.12,SW,227,1.0,4.0,63,0.00,,SKC,0.00,348.00,VWS V14.01,2013-06-24 17:35:00,
2013-06-24 13:38:00,83.4,70.4,30.12,SW,227,1.0,4.0,65,0.00,,SKC,0.00,1069.00,VWS V14.01,2013-06-24 17:38:00,
2013-06-24 13:41:00,84.3,69.4,30.12,SW,225,0.0,4.0,61,0.00,,SKC,0.00,246.00,VWS V14.01,2013-06-24 17:41:00,
2013-06-24 13:43:00,84.3,68.9,30.12,SW,219,4.0,5.0,60,0.00,,SKC,0.00,260.00,VWS V14.01,2013-06-24 17:43:00,
2013-06-24 13:46:00,83.4,69.5,30.12,SW,218,2.0,5.0,63,0.00,,SKC,0.00,911.00,VWS V14.01,2013-06-24 17:46:00,
2013-06-24 13:48:00,83.2,68.4,30.12,SW,218,1.0,5.0,61,0.00,,SKC,0.00,911.00,VWS V14.01,2013-06-24 17:48:00,
2013-06-24 13:49:00,83.2,69.8,30.12,SW,218,1.0,5.0,64,0.00,,SKC,0.00,250.00,VWS V14.01,2013-06-24 17:49:00,
2013-06-24 13:53:00,82.9,70.8,30.11,SW,218,3.0,5.0,67,0.00,,SKC,0.00,281.00,VWS V14.01,2013-06-24 17:53:00,
2013-06-24 13:54:00,82.8,70.7,30.11,SW,218,2.0,5.0,67,0.00,,SKC,0.00,309.00,VWS V14.01,2013-06-24 17:54:00,
2013-06-24 13:58:00,82.5,70.9,30.11,SW,218,1.0,5.0,68,0.00,,SKC,0.00,294.00,VWS V14.01,2013-06-24 17:58:00,
2013-06-24 13:59:00,82.5,70.9,30.11,SW,218,0.0,5.0,68,0.00,,SKC,0.00,304.00,VWS V14.01,2013-06-24 17:59:00,
2013-06-24 14:00:00,82.5,70.4,30.11,SW,218,0.0,5.0,67,0.00,,SKC,0.00,316.00,VWS V14.01,2013-06-24 18:00:00,
2013-06-24 14:03:00,82.4,71.2,30.11,SW,215,0.0,3.0,69,0.00,,SKC,0.00,272.00,VWS V14.01,2013-06-24 18:03:00,
2013-06-24 14:04:00,82.4,71.2,30.11,SW,215,1.0,3.0,69,0.00,,SKC,0.00,290.00,VWS V14.01,2013-06-24 18:04:00,
2013-06-24 14:05:00,82.4,71.2,30.10,SW,215,2.0,3.0,69,0.00,,SKC,0.00,290.00,VWS V14.01,2013-06-24 18:05:00,
2013-06-24 14:08:00,82.7,71.1,30.10,SW,215,0.0,3.0,68,0.00,,SKC,0.00,290.00,VWS V14.01,2013-06-24 18:08:00,
2013-06-24 14:09:00,82.7,71.1,30.10,SW,215,0.0,3.0,68,0.00,,SKC,0.00,436.00,VWS V14.01,2013-06-24 18:09:00,
2013-06-24 14:10:00,83.0,71.8,30.10,SW,215,0.0,3.0,69,0.00,,SKC,0.00,396.00,VWS V14.01,2013-06-24 18:10:00,
2013-06-24 14:11:00,83.1,71.9,30.10,SW,215,0.0,3.0,69,0.00,,SKC,0.00,396.00,VWS V14.01,2013-06-24 18:11:00,
2013-06-24 14:14:00,83.1,70.6,30.10,SSW,211,2.0,5.0,66,0.00,,SKC,0.00,325.00,VWS V14.01,2013-06-24 18:14:00,
2013-06-24 14:16:00,82.8,70.7,30.10,SSW,211,3.0,5.0,67,0.00,,SKC,0.00,454.00,VWS V14.01,2013-06-24 18:16:00,
2013-06-24 14:19:00,82.7,71.1,30.10,SSW,211,0.0,5.0,68,0.00,,SKC,0.00,1005.00,VWS V14.01,2013-06-24 18:19:00,
2013-06-24 14:21:00,83.4,72.2,30.09,SSE,153,3.0,5.0,69,0.00,,SKC,0.00,967.00,VWS V14.01,2013-06-24 18:21:00,
2013-06-24 14:24:00,84.7,72.1,30.09,East,92,2.0,5.0,66,0.00,,SKC,0.00,962.00,VWS V14.01,2013-06-24 18:24:00,
2013-06-24 14:25:00,84.9,71.8,30.09,East,93,2.0,5.0,65,0.00,,SKC,0.00,962.00,VWS V14.01,2013-06-24 18:25:00,
2013-06-24 14:26:00,84.9,71.4,30.09,East,93,0.0,5.0,64,0.00,,SKC,0.00,977.00,VWS V14.01,2013-06-24 18:26:00,
2013-06-24 14:27:00,85.0,71.9,30.09,East,93,0.0,5.0,65,0.00,,SKC,0.00,990.00,VWS V14.01,2013-06-24 18:27:00,
2013-06-24 14:30:00,86.1,72.5,30.09,SE,142,3.0,5.0,64,0.00,,SKC,0.00,1005.00,VWS V14.01,2013-06-24 18:30:00,
2013-06-24 14:32:00,85.6,71.6,30.09,SSE,154,2.0,3.0,63,0.00,,SKC,0.00,970.00,VWS V14.01,2013-06-24 18:32:00,
2013-06-24 14:35:00,84.8,70.8,30.09,SSW,207,0.0,5.0,63,0.00,,SKC,0.00,939.00,VWS V14.01,2013-06-24 18:35:00,
2013-06-24 14:38:00,85.0,71.0,30.09,SSW,207,2.0,5.0,63,0.00,,SKC,0.00,921.00,VWS V14.01,2013-06-24 18:38:00,
2013-06-24 14:40:00,84.6,70.2,30.08,SSW,208,1.0,5.0,62,0.00,,SKC,0.00,918.00,VWS V14.01,2013-06-24 18:40:00,
2013-06-24 14:43:00,84.3,71.7,30.08,SSW,211,4.0,7.0,66,0.00,,SKC,0.00,905.00,VWS V14.01,2013-06-24 18:43:00,
2013-06-24 14:44:00,84.4,71.4,30.08,SSW,204,0.0,7.0,65,0.00,,SKC,0.00,895.00,VWS V14.01,2013-06-24 18:44:00,
2013-06-24 14:45:00,84.7,71.2,30.09,SW,215,2.0,7.0,64,0.00,,SKC,0.00,886.00,VWS V14.01,2013-06-24 18:45:00,
2013-06-24 14:48:00,85.1,72.5,30.09,SSE,150,2.0,7.0,66,0.00,,SKC,0.00,888.00,VWS V14.01,2013-06-24 18:48:00,
2013-06-24 14:49:00,85.4,72.3,30.09,SE,132,3.0,7.0,65,0.00,,SKC,0.00,879.00,VWS V14.01,2013-06-24 18:49:00,
2013-06-24 14:50:00,85.4,71.4,30.09,ESE,120,2.0,7.0,63,0.00,,SKC,0.00,870.00,VWS V14.01,2013-06-24 18:50:00,
2013-06-24 14:53:00,85.2,71.2,30.09,ESE,122,2.0,7.0,63,0.00,,SKC,0.00,868.00,VWS V14.01,2013-06-24 18:53:00,
2013-06-24 14:54:00,85.2,71.2,30.09,ESE,121,0.0,7.0,63,0.00,,SKC,0.00,865.00,VWS V14.01,2013-06-24 18:54:00,
2013-06-24 14:56:00,85.3,72.2,30.08,SE,142,0.0,7.0,65,0.00,,SKC,0.00,860.00,VWS V14.01,2013-06-24 18:56:00,
2013-06-24 14:58:00,86.3,72.7,30.08,SE,142,1.0,7.0,64,0.00,,SKC,0.00,861.00,VWS V14.01,2013-06-24 18:58:00,
2013-06-24 14:59:00,86.3,72.7,30.08,SE,142,1.0,7.0,64,0.00,,SKC,0.00,861.00,VWS V14.01,2013-06-24 18:59:00,
2013-06-24 15:00:00,87.0,71.9,30.08,SE,142,0.0,7.0,61,0.00,,SKC,0.00,868.00,VWS V14.01,2013-06-24 19:00:00,
2013-06-24 15:01:00,87.6,72.5,30.08,SE,142,0.0,0.0,61,0.00,,SKC,0.00,865.00,VWS V14.01,2013-06-24 19:01:00,
2013-06-24 15:04:00,88.6,72.9,30.09,SE,130,1.0,2.0,60,0.00,,SKC,0.00,872.00,VWS V14.01,2013-06-24 19:04:00,
2013-06-24 15:05:00,88.7,72.5,30.08,SE,133,2.0,2.0,59,0.00,,SKC,0.00,882.00,VWS V14.01,2013-06-24 19:05:00,
2013-06-24 15:06:00,87.9,71.8,30.08,SE,135,0.0,2.0,59,0.00,,SKC,0.00,942.00,VWS V14.01,2013-06-24 19:06:00,
2013-06-24 15:09:00,86.8,71.8,30.08,SE,128,1.0,3.0,61,0.00,,SKC,0.00,974.00,VWS V14.01,2013-06-24 19:09:00,
2013-06-24 15:10:00,86.8,71.8,30.08,SE,128,1.0,3.0,61,0.00,,SKC,0.00,974.00,VWS V14.01,2013-06-24 19:10:00,
2013-06-24 15:12:00,86.2,71.7,30.08,SE,128,1.0,3.0,62,0.00,,SKC,0.00,933.00,VWS V14.01,2013-06-24 19:12:00,
2013-06-24 15:15:00,86.8,72.7,30.08,SSW,202,0.0,5.0,63,0.00,,SKC,0.00,902.00,VWS V14.01,2013-06-24 19:15:00,
2013-06-24 15:17:00,87.4,71.8,30.08,ENE,70,0.0,5.0,60,0.00,,SKC,0.00,921.00,VWS V14.01,2013-06-24 19:17:00,
2013-06-24 15:20:00,87.0,70.9,30.08,SSW,204,2.0,7.0,59,0.00,,SKC,0.00,490.00,VWS V14.01,2013-06-24 19:20:00,
2013-06-24 15:23:00,86.2,72.1,30.08,ESE,123,2.0,7.0,63,0.00,,SKC,0.00,882.00,VWS V14.01,2013-06-24 19:23:00,
2013-06-24 15:25:00,86.1,73.0,30.08,SE,129,1.0,7.0,65,0.00,,SKC,0.00,888.00,VWS V14.01,2013-06-24 19:25:00,
2013-06-24 15:28:00,87.2,74.0,30.08,SSE,164,2.0,7.0,65,0.00,,SKC,0.00,905.00,VWS V14.01,2013-06-24 19:28:00,
2013-06-24 15:30:00,87.0,73.8,30.07,SSW,199,1.0,7.0,65,0.00,,SKC,0.00,900.00,VWS V14.01,2013-06-24 19:30:00,
2013-06-24 15:33:00,86.4,73.2,30.07,South,191,1.0,5.0,65,0.00,,SKC,0.00,896.00,VWS V14.01,2013-06-24 19:33:00,
2013-06-24 15:35:00,86.8,73.6,30.07,South,191,0.0,5.0,65,0.00,,SKC,0.00,886.00,VWS V14.01,2013-06-24 19:35:00,
2013-06-24 15:36:00,86.8,72.7,30.07,South,191,0.0,5.0,63,0.00,,SKC,0.00,886.00,VWS V14.01,2013-06-24 19:36:00,
2013-06-24 15:38:00,86.5,73.8,30.07,SW,223,6.0,6.0,66,0.00,,SKC,0.00,970.00,VWS V14.01,2013-06-24 19:38:00,
2013-06-24 15:40:00,86.4,73.2,30.07,South,190,3.0,6.0,65,0.00,,SKC,0.00,942.00,VWS V14.01,2013-06-24 19:40:00,
2013-06-24 15:41:00,86.2,73.5,30.07,SW,222,5.0,8.0,66,0.00,,SKC,0.00,928.00,VWS V14.01,2013-06-24 19:41:00,
2013-06-24 15:44:00,85.3,72.7,30.07,SSE,157,5.0,8.0,66,0.00,,SKC,0.00,900.00,VWS V14.01,2013-06-24 19:44:00,
2013-06-24 15:45:00,85.3,73.1,30.07,SE,140,2.0,8.0,67,0.00,,SKC,0.00,888.00,VWS V14.01,2013-06-24 19:45:00,
2013-06-24 15:46:00,85.4,73.2,30.07,SE,138,6.0,8.0,67,0.00,,SKC,0.00,877.00,VWS V14.01,2013-06-24 19:46:00,
2013-06-24 15:47:00,85.7,74.4,30.07,South,179,2.0,8.0,69,0.00,,SKC,0.00,870.00,VWS V14.01,2013-06-24 19:47:00,
2013-06-24 15:49:00,85.7,73.0,30.07,SSW,209,6.0,8.0,66,0.00,,SKC,0.00,854.00,VWS V14.01,2013-06-24 19:49:00,
2013-06-24 15:50:00,85.6,73.4,30.07,SSW,211,2.0,8.0,67,0.00,,SKC,0.00,854.00,VWS V14.01,2013-06-24 19:50:00,
2013-06-24 15:51:00,85.6,72.9,30.07,SW,222,8.0,8.0,66,0.00,,SKC,0.00,860.00,VWS V14.01,2013-06-24 19:51:00,
2013-06-24 15:52:00,85.5,73.3,30.07,SSW,211,3.0,8.0,67,0.00,,SKC,0.00,863.00,VWS V14.01,2013-06-24 19:52:00,
2013-06-24 15:54:00,85.2,72.1,30.06,SSW,209,5.0,8.0,65,0.00,,SKC,0.00,875.00,VWS V14.01,2013-06-24 19:54:00,
2013-06-24 15:56:00,85.1,72.5,30.06,SE,134,0.0,8.0,66,0.00,,SKC,0.00,875.00,VWS V14.01,2013-06-24 19:56:00,
2013-06-24 15:57:00,85.4,72.8,30.06,SE,128,5.0,8.0,66,0.00,,SKC,0.00,777.00,VWS V14.01,2013-06-24 19:57:00,
2013-06-24 16:00:00,85.6,69.6,30.06,SE,139,4.0,8.0,59,0.00,,SKC,0.00,831.00,VWS V14.01,2013-06-24 20:00:00,
2013-06-24 16:01:00,85.5,69.6,30.06,SSE,150,4.0,8.0,59,0.00,,SKC,0.00,831.00,VWS V14.01,2013-06-24 20:01:00,
2013-06-24 16:02:00,85.5,68.5,30.06,SSE,148,5.0,6.0,57,0.00,,SKC,0.00,828.00,VWS V14.01,2013-06-24 20:02:00,
2013-06-24 16:05:00,85.4,68.4,30.06,SSW,209,2.0,6.0,57,0.00,,SKC,0.00,789.00,VWS V14.01,2013-06-24 20:05:00,
2013-06-24 16:06:00,85.4,67.9,30.06,SE,144,4.0,6.0,56,0.00,,SKC,0.00,796.00,VWS V14.01,2013-06-24 20:06:00,
2013-06-24 16:07:00,85.5,68.5,30.06,SE,143,1.0,6.0,57,0.00,,SKC,0.00,793.00,VWS V14.01,2013-06-24 20:07:00,
2013-06-24 16:10:00,85.7,67.7,30.06,SE,139,1.0,6.0,55,0.00,,SKC,0.00,793.00,VWS V14.01,2013-06-24 20:10:00,
2013-06-24 16:12:00,85.8,68.8,30.06,SSE,153,1.0,6.0,57,0.00,,SKC,0.00,803.00,VWS V14.01,2013-06-24 20:12:00,
2013-06-24 16:13:00,85.9,69.9,30.06,SSW,197,2.0,6.0,59,0.00,,SKC,0.00,782.00,VWS V14.01,2013-06-24 20:13:00,
2013-06-24 16:15:00,86.2,71.7,30.06,SSE,148,2.0,6.0,62,0.00,,SKC,0.00,686.00,VWS V14.01,2013-06-24 20:15:00,
2013-06-24 16:17:00,86.0,69.0,30.06,SSW,192,4.0,8.0,57,0.00,,SKC,0.00,751.00,VWS V14.01,2013-06-24 20:17:00,
2013-06-24 16:18:00,85.8,68.3,30.06,SSW,211,6.0,8.0,56,0.00,,SKC,0.00,751.00,VWS V14.01,2013-06-24 20:18:00,
2013-06-24 16:21:00,85.1,68.2,30.05,SSW,212,0.0,8.0,57,0.00,,SKC,0.00,742.00,VWS V14.01,2013-06-24 20:21:00,
2013-06-24 16:22:00,85.2,70.2,30.05,SSW,209,1.0,8.0,61,0.00,,SKC,0.00,722.00,VWS V14.01,2013-06-24 20:22:00,
2013-06-24 16:23:00,85.2,70.2,30.05,SSE,158,6.0,8.0,61,0.00,,SKC,0.00,714.00,VWS V14.01,2013-06-24 20:23:00,
2013-06-24 16:26:00,85.4,69.4,30.05,SSE,165,2.0,8.0,59,0.00,,SKC,0.00,693.00,VWS V14.01,2013-06-24 20:26:00,
2013-06-24 16:27:00,85.4,70.4,30.05,SSW,209,2.0,8.0,61,0.00,,SKC,0.00,687.00,VWS V14.01,2013-06-24 20:27:00,
2013-06-24 16:28:00,85.4,70.9,30.05,SSW,199,2.0,8.0,62,0.00,,SKC,0.00,684.00,VWS V14.01,2013-06-24 20:28:00,
2013-06-24 16:29:00,85.3,69.8,30.05,South,187,1.0,8.0,60,0.00,,SKC,0.00,682.00,VWS V14.01,2013-06-24 20:29:00,
2013-06-24 16:31:00,85.2,69.8,30.05,SE,138,3.0,4.0,60,0.00,,SKC,0.00,673.00,VWS V14.01,2013-06-24 20:31:00,
2013-06-24 16:33:00,85.2,70.7,30.05,SE,142,1.0,4.0,62,0.00,,SKC,0.00,668.00,VWS V14.01,2013-06-24 20:33:00,
2013-06-24 16:35:00,85.3,70.8,30.05,ESE,121,4.0,7.0,62,0.00,,SKC,0.00,664.00,VWS V14.01,2013-06-24 20:35:00,
2013-06-24 16:36:00,85.2,71.2,30.05,SE,136,4.0,7.0,63,0.00,,SKC,0.00,663.00,VWS V14.01,2013-06-24 20:36:00,
2013-06-24 16:38:00,85.0,71.5,30.05,South,174,1.0,7.0,64,0.00,,SKC,0.00,659.00,VWS V14.01,2013-06-24 20:38:00,
2013-06-24 16:40:00,85.1,72.9,30.05,SE,146,1.0,7.0,67,0.00,,SKC,0.00,650.00,VWS V14.01,2013-06-24 20:40:00,
2013-06-24 16:41:00,85.0,71.0,30.05,SE,139,2.0,7.0,63,0.00,,SKC,0.00,647.00,VWS V14.01,2013-06-24 20:41:00,
2013-06-24 16:43:00,84.9,70.9,30.05,SE,140,6.0,7.0,63,0.00,,SKC,0.00,647.00,VWS V14.01,2013-06-24 20:43:00,
2013-06-24 16:44:00,84.9,71.4,30.05,SE,132,7.0,7.0,64,0.00,,SKC,0.00,645.00,VWS V14.01,2013-06-24 20:44:00,
2013-06-24 16:45:00,84.8,71.3,30.05,SSE,153,2.0,7.0,64,0.00,,SKC,0.00,636.00,VWS V14.01,2013-06-24 20:45:00,
2013-06-24 16:47:00,84.8,70.8,30.05,SE,141,3.0,7.0,63,0.00,,SKC,0.00,626.00,VWS V14.01,2013-06-24 20:47:00,
2013-06-24 16:48:00,84.9,70.9,30.05,SE,144,5.0,7.0,63,0.00,,SKC,0.00,617.00,VWS V14.01,2013-06-24 20:48:00,
2013-06-24 16:50:00,84.9,70.9,30.05,SE,136,3.0,7.0,63,0.00,,SKC,0.00,629.00,VWS V14.01,2013-06-24 20:50:00,
2013-06-24 16:51:00,84.9,70.0,30.05,SE,146,2.0,7.0,61,0.00,,SKC,0.00,642.00,VWS V14.01,2013-06-24 20:51:00,
2013-06-24 16:52:00,85.0,71.0,30.05,SSE,153,0.0,7.0,63,0.00,,SKC,0.00,608.00,VWS V14.01,2013-06-24 20:52:00,
2013-06-24 16:53:00,85.0,70.1,30.05,SE,138,1.0,7.0,61,0.00,,SKC,0.00,227.00,VWS V14.01,2013-06-24 20:53:00,
2013-06-24 16:55:00,85.0,70.1,30.05,SE,138,2.0,7.0,61,0.00,,SKC,0.00,232.00,VWS V14.01,2013-06-24 20:55:00,
2013-06-24 16:56:00,85.1,70.2,30.05,SE,138,0.0,7.0,61,0.00,,SKC,0.00,295.00,VWS V14.01,2013-06-24 20:56:00,
2013-06-24 16:57:00,85.1,70.6,30.05,SE,138,1.0,7.0,62,0.00,,SKC,0.00,466.00,VWS V14.01,2013-06-24 20:57:00,
2013-06-24 16:59:00,85.2,71.7,30.05,SE,139,2.0,7.0,64,0.00,,SKC,0.00,209.00,VWS V14.01,2013-06-24 20:59:00,
2013-06-24 17:00:00,85.1,71.1,30.05,SE,138,4.0,7.0,63,0.00,,SKC,0.00,290.00,VWS V14.01,2013-06-24 21:00:00,
2013-06-24 17:01:00,85.0,71.5,30.05,SSW,211,4.0,6.0,64,0.00,,SKC,0.00,506.00,VWS V14.01,2013-06-24 21:01:00,
2013-06-24 17:03:00,84.9,72.3,30.05,SE,135,4.0,6.0,66,0.00,,SKC,0.00,578.00,VWS V14.01,2013-06-24 21:03:00,
2013-06-24 17:04:00,85.0,71.9,30.05,SE,137,4.0,6.0,65,0.00,,SKC,0.00,578.00,VWS V14.01,2013-06-24 21:04:00,
2013-06-24 17:05:00,85.0,71.9,30.05,SSE,148,2.0,6.0,65,0.00,,SKC,0.00,265.00,VWS V14.01,2013-06-24 21:05:00,
2013-06-24 17:07:00,84.8,70.8,30.05,South,169,2.0,6.0,63,0.00,,SKC,0.00,211.00,VWS V14.01,2013-06-24 21:07:00,
2013-06-24 17:08:00,84.5,71.0,30.05,South,190,1.0,10.0,64,0.00,,SKC,0.00,209.00,VWS V14.01,2013-06-24 21:08:00,
2013-06-24 17:09:00,84.2,71.2,30.05,SSW,205,4.0,10.0,65,0.00,,SKC,0.00,206.00,VWS V14.01,2013-06-24 21:09:00,
2013-06-24 17:10:00,84.1,71.1,30.05,SE,142,4.0,10.0,65,0.00,,SKC,0.00,199.00,VWS V14.01,2013-06-24 21:10:00,
2013-06-24 17:12:00,83.6,71.5,30.05,SW,225,3.0,10.0,67,0.00,,SKC,0.00,202.00,VWS V14.01,2013-06-24 21:12:00,
2013-06-24 17:13:00,83.3,71.2,30.05,SSW,199,0.0,10.0,67,0.00,,SKC,0.00,193.00,VWS V14.01,2013-06-24 21:13:00,
2013-06-24 17:15:00,83.2,72.0,30.05,SW,221,3.0,10.0,69,0.00,,SKC,0.00,193.00,VWS V14.01,2013-06-24 21:15:00,
2013-06-24 17:17:00,83.0,70.9,30.05,SSW,202,4.0,10.0,67,0.00,,SKC,0.00,626.00,VWS V14.01,2013-06-24 21:17:00,
2013-06-24 17:19:00,83.1,71.0,30.05,SSW,201,4.0,10.0,67,0.00,,SKC,0.00,585.00,VWS V14.01,2013-06-24 21:19:00,
2013-06-24 17:20:00,83.2,71.6,30.04,SSW,198,0.0,10.0,68,0.00,,SKC,0.00,566.00,VWS V14.01,2013-06-24 21:20:00,
2013-06-24 17:22:00,83.5,71.4,30.04,SW,216,5.0,10.0,67,0.00,,SKC,0.00,563.00,VWS V14.01,2013-06-24 21:22:00,
2013-06-24 17:24:00,83.6,71.1,30.05,SW,215,3.0,10.0,66,0.00,,SKC,0.00,547.00,VWS V14.01,2013-06-24 21:24:00,
2013-06-24 17:25:00,83.7,71.1,30.05,ESE,122,3.0,10.0,66,0.00,,SKC,0.00,543.00,VWS V14.01,2013-06-24 21:25:00,
2013-06-24 17:26:00,83.7,71.1,30.04,SE,126,2.0,10.0,66,0.00,,SKC,0.00,540.00,VWS V14.01,2013-06-24 21:26:00,
2013-06-24 17:28:00,83.8,70.8,30.04,SSW,196,1.0,10.0,65,0.00,,SKC,0.00,533.00,VWS V14.01,2013-06-24 21:28:00,
2013-06-24 17:30:00,83.9,70.9,30.04,SSW,202,3.0,10.0,65,0.00,,SKC,0.00,522.00,VWS V14.01,2013-06-24 21:30:00,
2013-06-24 17:31:00,83.8,70.8,30.05,South,178,0.0,3.0,65,0.00,,SKC,0.00,515.00,VWS V14.01,2013-06-24 21:31:00,
2013-06-24 17:34:00,83.7,71.1,30.05,WSW,237,5.0,8.0,66,0.00,,SKC,0.00,510.00,VWS V14.01,2013-06-24 21:34:00,
2013-06-24 17:35:00,83.5,71.4,30.05,SSW,212,6.0,8.0,67,0.00,,SKC,0.00,504.00,VWS V14.01,2013-06-24 21:35:00,
2013-06-24 17:37:00,83.4,71.3,30.05,SSW,207,4.0,8.0,67,0.00,,SKC,0.00,503.00,VWS V14.01,2013-06-24 21:37:00,
2013-06-24 17:39:00,83.1,71.0,30.05,SSW,208,7.0,12.0,67,0.00,,SKC,0.00,487.00,VWS V14.01,2013-06-24 21:39:00,
2013-06-24 17:40:00,82.9,71.3,30.05,SSW,207,8.0,12.0,68,0.00,,SKC,0.00,469.00,VWS V14.01,2013-06-24 21:40:00,
2013-06-24 17:42:00,82.7,70.6,30.05,South,173,2.0,12.0,67,0.00,,SKC,0.00,436.00,VWS V14.01,2013-06-24 21:42:00,
2013-06-24 17:44:00,82.7,71.5,30.05,South,190,3.0,12.0,69,0.00,,SKC,0.00,471.00,VWS V14.01,2013-06-24 21:44:00,
2013-06-24 17:45:00,82.7,71.5,30.05,SSW,202,0.0,12.0,69,0.00,,SKC,0.00,480.00,VWS V14.01,2013-06-24 21:45:00,
2013-06-24 17:46:00,82.6,71.4,30.05,SSW,202,0.0,12.0,69,0.00,,SKC,0.00,480.00,VWS V14.01,2013-06-24 21:46:00,
2013-06-24 17:48:00,82.8,71.6,30.05,SSW,207,1.0,12.0,69,0.00,,SKC,0.00,473.00,VWS V14.01,2013-06-24 21:48:00,
2013-06-24 17:49:00,82.8,71.6,30.05,SSW,204,3.0,12.0,69,0.00,,SKC,0.00,468.00,VWS V14.01,2013-06-24 21:49:00,
2013-06-24 17:51:00,82.7,71.5,30.05,SW,218,1.0,12.0,69,0.00,,SKC,0.00,462.00,VWS V14.01,2013-06-24 21:51:00,
2013-06-24 17:54:00,82.5,69.1,30.05,SW,221,5.0,12.0,64,0.00,,SKC,0.00,450.00,VWS V14.01,2013-06-24 21:54:00,
2013-06-24 17:55:00,82.4,69.0,30.05,SSE,157,2.0,12.0,64,0.00,,SKC,0.00,448.00,VWS V14.01,2013-06-24 21:55:00,
2013-06-24 17:57:00,82.3,69.8,30.05,SSW,196,1.0,12.0,66,0.00,,SKC,0.00,446.00,VWS V14.01,2013-06-24 21:57:00,
2013-06-24 18:01:00,82.3,68.5,30.06,SSW,205,4.0,12.0,63,0.00,,SKC,0.00,364.00,VWS V14.01,2013-06-24 22:01:00,
2013-06-24 18:03:00,82.1,68.7,30.05,SSW,198,3.0,5.0,64,0.00,,SKC,0.00,403.00,VWS V14.01,2013-06-24 22:03:00,
2013-06-24 18:07:00,81.8,68.0,30.05,SW,228,1.0,5.0,63,0.00,,SKC,0.00,206.00,VWS V14.01,2013-06-24 22:07:00,
2013-06-24 18:08:00,81.7,68.3,30.05,SW,227,0.0,5.0,64,0.00,,SKC,0.00,148.00,VWS V14.01,2013-06-24 22:08:00,
2013-06-24 18:09:00,81.8,68.0,30.05,SSW,211,2.0,5.0,63,0.00,,SKC,0.00,420.00,VWS V14.01,2013-06-24 22:09:00,
2013-06-24 18:12:00,81.8,68.4,30.05,SSW,211,0.0,5.0,64,0.00,,SKC,0.00,415.00,VWS V14.01,2013-06-24 22:12:00,
2013-06-24 18:14:00,81.9,69.9,30.05,SSW,211,0.0,5.0,67,0.00,,SKC,0.00,100.00,VWS V14.01,2013-06-24 22:14:00,
2013-06-24 18:16:00,81.9,69.4,30.05,SW,215,2.0,5.0,66,0.00,,SKC,0.00,97.00,VWS V14.01,2013-06-24 22:16:00,
2013-06-24 18:17:00,81.8,69.3,30.05,SW,215,0.0,5.0,66,0.00,,SKC,0.00,98.00,VWS V14.01,2013-06-24 22:17:00,
2013-06-24 18:20:00,81.8,70.2,30.05,SW,215,1.0,5.0,68,0.00,,SKC,0.00,100.00,VWS V14.01,2013-06-24 22:20:00,
2013-06-24 18:21:00,81.7,70.1,30.05,SW,215,1.0,5.0,68,0.00,,SKC,0.00,109.00,VWS V14.01,2013-06-24 22:21:00,
2013-06-24 18:22:00,81.6,70.0,30.05,SW,215,3.0,5.0,68,0.00,,SKC,0.00,107.00,VWS V14.01,2013-06-24 22:22:00,
2013-06-24 18:23:00,81.6,70.0,30.05,SW,219,0.0,5.0,68,0.00,,SKC,0.00,107.00,VWS V14.01,2013-06-24 22:23:00,
2013-06-24 18:25:00,81.2,69.6,30.05,SSW,209,0.0,5.0,68,0.00,,SKC,0.00,105.00,VWS V14.01,2013-06-24 22:25:00,
2013-06-24 18:27:00,81.0,69.9,30.05,SW,216,4.0,5.0,69,0.00,,SKC,0.00,98.00,VWS V14.01,2013-06-24 22:27:00,
2013-06-24 18:28:00,80.9,69.8,30.05,SSW,211,3.0,5.0,69,0.00,,SKC,0.00,95.00,VWS V14.01,2013-06-24 22:28:00,
2013-06-24 18:30:00,80.7,70.0,30.06,SSW,213,0.0,5.0,70,0.00,,SKC,0.00,79.00,VWS V14.01,2013-06-24 22:30:00,
2013-06-24 18:32:00,80.6,69.9,30.06,WSW,248,0.0,2.0,70,0.00,,SKC,0.00,51.00,VWS V14.01,2013-06-24 22:32:00,
2013-06-24 18:33:00,80.6,70.3,30.06,WSW,246,1.0,2.0,71,0.00,,SKC,0.00,47.00,VWS V14.01,2013-06-24 22:33:00,
2013-06-24 18:35:00,80.2,70.4,30.06,SSW,213,5.0,5.0,72,0.00,,SKC,0.00,40.00,VWS V14.01,2013-06-24 22:35:00,
2013-06-24 18:38:00,79.5,70.1,30.06,SSW,205,2.0,5.0,73,0.00,,SKC,0.00,32.00,VWS V14.01,2013-06-24 22:38:00,
2013-06-24 18:39:00,79.4,70.4,30.06,SSW,198,0.0,5.0,74,0.00,,SKC,0.00,30.00,VWS V14.01,2013-06-24 22:39:00,
2013-06-24 18:41:00,79.2,70.2,30.06,NNW,344,1.0,5.0,74,0.00,,SKC,0.00,28.00,VWS V14.01,2013-06-24 22:41:00,
2013-06-24 18:43:00,79.0,70.8,30.06,WNW,284,0.0,5.0,76,0.00,,SKC,0.00,26.00,VWS V14.01,2013-06-24 22:43:00,
2013-06-24 18:44:00,79.0,70.8,30.06,WNW,284,0.0,5.0,76,0.00,,SKC,0.00,25.00,VWS V14.01,2013-06-24 22:44:00,
2013-06-24 18:46:00,78.9,70.7,30.06,SSW,202,6.0,6.0,76,0.00,,SKC,0.00,25.00,VWS V14.01,2013-06-24 22:46:00,
2013-06-24 18:49:00,78.5,70.7,30.06,SSW,208,0.0,6.0,77,0.00,,SKC,0.00,25.00,VWS V14.01,2013-06-24 22:49:00,
2013-06-24 18:51:00,78.4,71.0,30.06,SSW,211,0.0,7.0,78,0.00,,SKC,0.00,25.00,VWS V14.01,2013-06-24 22:51:00,
2013-06-24 18:54:00,78.3,70.9,30.06,SSW,211,1.0,7.0,78,0.00,,SKC,0.00,25.00,VWS V14.01,2013-06-24 22:54:00,
2013-06-24 18:55:00,78.3,70.9,30.06,SSW,211,1.0,7.0,78,0.00,,SKC,0.00,26.00,VWS V14.01,2013-06-24 22:55:00,
2013-06-24 18:56:00,78.2,70.8,30.06,SSW,208,1.0,7.0,78,0.00,,SKC,0.00,26.00,VWS V14.01,2013-06-24 22:56:00,
2013-06-24 18:57:00,78.1,70.7,30.06,SSW,208,1.0,7.0,78,0.00,,SKC,0.00,28.00,VWS V14.01,2013-06-24 22:57:00,
2013-06-24 18:59:00,78.0,70.6,30.06,SSW,211,2.0,7.0,78,0.00,,SKC,0.00,30.00,VWS V14.01,2013-06-24 22:59:00,
2013-06-24 19:01:00,77.9,70.5,30.06,SSW,208,7.0,7.0,78,0.00,,SKC,0.00,32.00,VWS V14.01,2013-06-24 23:01:00,
2013-06-24 19:02:00,77.8,70.4,30.06,SSW,208,4.0,7.0,78,0.00,,SKC,0.00,33.00,VWS V14.01,2013-06-24 23:02:00,
2013-06-24 19:05:00,77.7,70.3,30.06,WNW,296,1.0,7.0,78,0.00,,SKC,0.00,40.00,VWS V14.01,2013-06-24 23:05:00,
2013-06-24 19:06:00,77.7,70.7,30.06,NW,326,0.0,7.0,79,0.00,,SKC,0.00,49.00,VWS V14.01,2013-06-24 23:06:00,
2013-06-24 19:08:00,77.7,70.3,30.06,NW,325,1.0,7.0,78,0.00,,SKC,0.00,53.00,VWS V14.01,2013-06-24 23:08:00,
2013-06-24 19:10:00,77.8,70.8,30.06,NW,325,2.0,7.0,79,0.00,,SKC,0.00,209.00,VWS V14.01,2013-06-24 23:10:00,
2013-06-24 19:11:00,78.0,70.6,30.06,NW,325,1.0,7.0,78,0.00,,SKC,0.00,192.00,VWS V14.01,2013-06-24 23:11:00,
2013-06-24 19:12:00,78.0,70.6,30.06,NNW,328,2.0,7.0,78,0.00,,SKC,0.00,192.00,VWS V14.01,2013-06-24 23:12:00,
2013-06-24 19:13:00,78.1,70.3,30.06,NNW,329,2.0,7.0,77,0.00,,SKC,0.00,221.00,VWS V14.01,2013-06-24 23:13:00,
2013-06-24 19:15:00,78.2,70.0,30.06,NNW,328,3.0,7.0,76,0.00,,SKC,0.00,229.00,VWS V14.01,2013-06-24 23:15:00,
2013-06-24 19:16:00,78.3,70.1,30.05,NNW,328,0.0,7.0,76,0.00,,SKC,0.00,232.00,VWS V14.01,2013-06-24 23:16:00,
2013-06-24 19:17:00,78.4,70.2,30.05,NNW,328,0.0,7.0,76,0.00,,SKC,0.00,232.00,VWS V14.01,2013-06-24 23:17:00,
2013-06-24 19:18:00,78.5,70.3,30.06,NNW,328,0.0,7.0,76,0.00,,SKC,0.00,223.00,VWS V14.01,2013-06-24 23:18:00,
2013-06-24 19:20:00,78.9,69.5,30.06,NNW,328,0.0,7.0,73,0.00,,SKC,0.00,151.00,VWS V14.01,2013-06-24 23:20:00,
2013-06-24 19:22:00,79.0,70.0,30.05,NNW,328,0.0,7.0,74,0.00,,SKC,0.00,178.00,VWS V14.01,2013-06-24 23:22:00,
2013-06-24 19:23:00,79.1,69.3,30.05,NNW,328,0.0,7.0,72,0.00,,SKC,0.00,130.00,VWS V14.01,2013-06-24 23:23:00,
2013-06-24 19:25:00,79.3,70.3,30.05,NNW,328,0.0,7.0,74,0.00,,SKC,0.00,165.00,VWS V14.01,2013-06-24 23:25:00,
2013-06-24 19:27:00,79.4,69.6,30.05,NNW,328,1.0,7.0,72,0.00,,SKC,0.00,142.00,VWS V14.01,2013-06-24 23:27:00,
2013-06-24 19:28:00,79.5,69.7,30.05,NNW,328,2.0,7.0,72,0.00,,SKC,0.00,142.00,VWS V14.01,2013-06-24 23:28:00,
2013-06-24 19:30:00,79.6,70.2,30.06,NNW,328,0.0,7.0,73,0.00,,SKC,0.00,123.00,VWS V14.01,2013-06-24 23:30:00,
2013-06-24 19:33:00,79.5,70.5,30.05,NNW,328,0.0,0.0,74,0.00,,SKC,0.00,188.00,VWS V14.01,2013-06-24 23:33:00,
2013-06-24 19:36:00,79.4,70.0,30.05,NNW,328,0.0,1.0,73,0.00,,SKC,0.00,176.00,VWS V14.01,2013-06-24 23:36:00,
2013-06-24 19:38:00,79.5,70.5,30.05,NNW,328,0.0,1.0,74,0.00,,SKC,0.00,169.00,VWS V14.01,2013-06-24 23:38:00,
2013-06-24 19:39:00,79.6,70.2,30.05,NNW,328,0.0,1.0,73,0.00,,SKC,0.00,135.00,VWS V14.01,2013-06-24 23:39:00,
2013-06-24 19:42:00,79.7,69.5,30.06,NNW,328,0.0,2.0,71,0.00,,SKC,0.00,113.00,VWS V14.01,2013-06-24 23:42:00,
2013-06-24 19:43:00,79.7,69.5,30.06,NNW,328,0.0,2.0,71,0.00,,SKC,0.00,148.00,VWS V14.01,2013-06-24 23:43:00,
2013-06-24 19:44:00,79.7,69.5,30.06,NNW,328,0.0,2.0,71,0.00,,SKC,0.00,127.00,VWS V14.01,2013-06-24 23:44:00,
2013-06-24 19:47:00,79.8,70.4,30.05,NNW,328,0.0,2.0,73,0.00,,SKC,0.00,91.00,VWS V14.01,2013-06-24 23:47:00,
2013-06-24 19:49:00,79.7,70.3,30.05,NNW,328,0.0,2.0,73,0.00,,SKC,0.00,84.00,VWS V14.01,2013-06-24 23:49:00,
2013-06-24 19:53:00,79.6,70.6,30.05,NNW,328,0.0,2.0,74,0.00,,SKC,0.00,70.00,VWS V14.01,2013-06-24 23:53:00,
2013-06-24 19:54:00,79.6,70.6,30.06,NNW,328,0.0,2.0,74,0.00,,SKC,0.00,67.00,VWS V14.01,2013-06-24 23:54:00,
2013-06-24 19:59:00,79.6,70.6,30.06,NNW,328,0.0,2.0,74,0.00,,SKC,0.00,56.00,VWS V14.01,2013-06-24 23:59:00,
2013-06-24 20:00:00,79.5,70.5,30.05,NNW,328,0.0,2.0,74,0.00,,SKC,0.00,54.00,VWS V14.01,2013-06-25 00:00:00,
2013-06-24 20:04:00,79.5,71.3,30.06,NNW,328,0.0,0.0,76,0.00,,SKC,0.00,54.00,VWS V14.01,2013-06-25 00:04:00,
2013-06-24 20:05:00,79.4,71.2,30.06,NNW,328,0.0,0.0,76,0.00,,SKC,0.00,54.00,VWS V14.01,2013-06-25 00:05:00,
2013-06-24 20:06:00,79.4,71.6,30.06,NNW,328,0.0,0.0,77,0.00,,SKC,0.00,54.00,VWS V14.01,2013-06-25 00:06:00,
2013-06-24 20:09:00,79.2,71.4,30.06,NNW,328,0.0,0.0,77,0.00,,SKC,0.00,56.00,VWS V14.01,2013-06-25 00:09:00,
2013-06-24 20:10:00,79.2,71.4,30.06,NNW,328,0.0,0.0,77,0.00,,SKC,0.00,56.00,VWS V14.01,2013-06-25 00:10:00,
2013-06-24 20:11:00,79.2,71.4,30.06,NNW,328,0.0,0.0,77,0.00,,SKC,0.00,56.00,VWS V14.01,2013-06-25 00:11:00,
2013-06-24 20:15:00,79.1,71.3,30.06,NNW,328,0.0,0.0,77,0.00,,SKC,0.00,53.00,VWS V14.01,2013-06-25 00:15:00,
2013-06-24 20:16:00,79.0,71.2,30.06,NNW,328,0.0,0.0,77,0.00,,SKC,0.00,51.00,VWS V14.01,2013-06-25 00:16:00,
2013-06-24 20:20:00,79.0,71.2,30.06,NNW,328,0.0,0.0,77,0.00,,SKC,0.00,40.00,VWS V14.01,2013-06-25 00:20:00,
2013-06-24 20:21:00,79.0,71.2,30.06,NNW,328,0.0,0.0,77,0.00,,SKC,0.00,40.00,VWS V14.01,2013-06-25 00:21:00,
2013-06-24 20:22:00,79.0,71.2,30.06,NNW,328,0.0,0.0,77,0.00,,SKC,0.00,39.00,VWS V14.01,2013-06-25 00:22:00,
2013-06-24 20:26:00,78.9,71.5,30.07,NNW,328,0.0,0.0,78,0.00,,SKC,0.00,25.00,VWS V14.01,2013-06-25 00:26:00,
2013-06-24 20:27:00,78.8,71.4,30.07,NNW,328,0.0,0.0,78,0.00,,SKC,0.00,23.00,VWS V14.01,2013-06-25 00:27:00,
2013-06-24 20:28:00,78.8,71.4,30.07,NNW,328,0.0,1.0,78,0.00,,SKC,0.00,19.00,VWS V14.01,2013-06-25 00:28:00,
2013-06-24 20:31:00,78.7,71.3,30.07,NNW,328,0.0,1.0,78,0.00,,SKC,0.00,14.00,VWS V14.01,2013-06-25 00:31:00,
2013-06-24 20:32:00,78.6,71.2,30.07,NNW,328,0.0,0.0,78,0.00,,SKC,0.00,12.00,VWS V14.01,2013-06-25 00:32:00,
2013-06-24 20:33:00,78.5,71.1,30.07,NNW,328,0.0,0.0,78,0.00,,SKC,0.00,9.00,VWS V14.01,2013-06-25 00:33:00,
2013-06-24 20:36:00,78.4,71.3,30.07,NNW,328,0.0,0.0,79,0.00,,SKC,0.00,5.00,VWS V14.01,2013-06-25 00:36:00,
2013-06-24 20:37:00,78.3,71.3,30.06,NNW,328,0.0,0.0,79,0.00,,SKC,0.00,5.00,VWS V14.01,2013-06-25 00:37:00,
2013-06-24 20:38:00,78.3,71.3,30.06,NNW,328,0.0,0.0,79,0.00,,SKC,0.00,0.00,VWS V14.01,2013-06-25 00:38:00,
2013-06-24 20:42:00,78.0,71.3,30.07,NNW,328,0.0,0.0,80,0.00,,SKC,0.00,0.00,VWS V14.01,2013-06-25 00:42:00,
2013-06-24 20:43:00,78.0,71.0,30.06,NNW,328,0.0,0.0,79,0.00,,SKC,0.00,0.00,VWS V14.01,2013-06-25 00:43:00,
2013-06-24 20:47:00,77.7,70.7,30.06,NNW,328,0.0,0.0,79,0.00,,SKC,0.00,0.00,VWS V14.01,2013-06-25 00:47:00,
2013-06-24 20:48:00,77.5,70.5,30.06,NNW,328,0.0,0.0,79,0.00,,SKC,0.00,0.00,VWS V14.01,2013-06-25 00:48:00,
2013-06-24 20:52:00,77.3,70.3,30.06,NNW,328,0.0,0.0,79,0.00,,SKC,0.00,0.00,VWS V14.01,2013-06-25 00:52:00,
2013-06-24 20:53:00,77.2,69.8,30.06,NNW,328,0.0,0.0,78,0.00,,SKC,0.00,0.00,VWS V14.01,2013-06-25 00:53:00,
2013-06-24 20:55:00,77.1,70.1,30.06,NNW,328,0.0,0.0,79,0.00,,SKC,0.00,0.00,VWS V14.01,2013-06-25 00:55:00,
2013-06-24 20:57:00,76.9,69.9,30.06,NNW,328,0.0,0.0,79,0.00,,SKC,0.00,0.00,VWS V14.01,2013-06-25 00:57:00,
2013-06-24 20:58:00,76.7,69.7,30.06,NNW,328,0.0,0.0,79,0.00,,SKC,0.00,0.00,VWS V14.01,2013-06-25 00:58:00,
2013-06-24 21:00:00,76.5,69.9,30.06,NNW,328,0.0,0.0,80,0.00,,SKC,0.00,0.00,VWS V14.01,2013-06-25 01:00:00,
2013-06-24 21:02:00,76.3,70.4,30.05,NNW,328,0.0,0.0,82,0.00,,SKC,0.00,0.00,VWS V14.01,2013-06-25 01:02:00,
2013-06-24 21:03:00,76.3,70.4,30.05,NNW,328,0.0,0.0,82,0.00,,SKC,0.00,0.00,VWS V14.01,2013-06-25 01:03:00,
2013-06-24 21:06:00,76.2,70.7,30.05,NNW,328,0.0,1.0,83,0.00,,SKC,0.00,0.00,VWS V14.01,2013-06-25 01:06:00,
2013-06-24 21:07:00,76.1,70.6,30.05,NNW,328,0.0,1.0,83,0.00,,SKC,0.00,0.00,VWS V14.01,2013-06-25 01:07:00,
2013-06-24 21:08:00,76.1,70.6,30.05,NNW,328,0.0,1.0,83,0.00,,SKC,0.00,0.00,VWS V14.01,2013-06-25 01:08:00,
2013-06-24 21:10:00,75.9,70.4,30.06,NNW,328,0.0,1.0,83,0.00,,SKC,0.00,0.00,VWS V14.01,2013-06-25 01:10:00,
2013-06-24 21:11:00,75.8,69.9,30.05,NNW,328,0.0,1.0,82,0.00,,SKC,0.00,0.00,VWS V14.01,2013-06-25 01:11:00,
2013-06-24 21:13:00,75.8,69.9,30.06,NNW,328,0.0,1.0,82,0.00,,SKC,0.00,0.00,VWS V14.01,2013-06-25 01:13:00,
2013-06-24 21:14:00,75.8,70.3,30.06,NNW,328,0.0,1.0,83,0.00,,SKC,0.00,0.00,VWS V14.01,2013-06-25 01:14:00,
2013-06-24 21:16:00,75.7,70.2,30.06,NNW,328,0.0,1.0,83,0.00,,SKC,0.00,0.00,VWS V14.01,2013-06-25 01:16:00,
2013-06-24 21:17:00,75.7,70.2,30.06,NNW,328,0.0,1.0,83,0.00,,SKC,0.00,0.00,VWS V14.01,2013-06-25 01:17:00,
2013-06-24 21:18:00,75.7,70.2,30.06,NNW,328,0.0,1.0,83,0.00,,SKC,0.00,0.00,VWS V14.01,2013-06-25 01:18:00,
2013-06-24 21:19:00,75.6,70.4,30.06,NNW,328,0.0,1.0,84,0.00,,SKC,0.00,0.00,VWS V14.01,2013-06-25 01:19:00,
2013-06-24 21:21:00,75.5,70.3,30.06,NNW,328,0.0,1.0,84,0.00,,SKC,0.00,0.00,VWS V14.01,2013-06-25 01:21:00,
2013-06-24 21:22:00,75.5,70.3,30.06,NNW,328,0.0,1.0,84,0.00,,SKC,0.00,0.00,VWS V14.01,2013-06-25 01:22:00,
2013-06-24 21:23:00,75.4,70.2,30.06,NNW,328,0.0,1.0,84,0.00,,SKC,0.00,0.00,VWS V14.01,2013-06-25 01:23:00,
2013-06-24 21:26:00,75.3,70.1,30.06,NNW,328,0.0,1.0,84,0.00,,SKC,0.00,0.00,VWS V14.01,2013-06-25 01:26:00,
2013-06-24 21:27:00,75.2,70.0,30.06,NNW,328,0.0,1.0,84,0.00,,SKC,0.00,0.00,VWS V14.01,2013-06-25 01:27:00,
2013-06-24 21:28:00,75.1,69.9,30.06,NNW,328,0.0,1.0,84,0.00,,SKC,0.00,0.00,VWS V14.01,2013-06-25 01:28:00,
2013-06-24 21:32:00,74.8,69.7,30.06,NNW,328,0.0,0.0,84,0.00,,SKC,0.00,0.00,VWS V14.01,2013-06-25 01:32:00,
2013-06-24 21:33:00,74.8,69.7,30.06,NNW,328,0.0,0.0,84,0.00,,SKC,0.00,0.00,VWS V14.01,2013-06-25 01:33:00,
2013-06-24 21:34:00,74.7,69.6,30.06,NNW,328,0.0,0.0,84,0.00,,SKC,0.00,0.00,VWS V14.01,2013-06-25 01:34:00,
2013-06-24 21:37:00,74.5,69.3,30.06,NNW,328,0.0,1.0,84,0.00,,SKC,0.00,0.00,VWS V14.01,2013-06-25 01:37:00,
2013-06-24 21:38:00,74.5,69.3,30.06,NNW,328,0.0,1.0,84,0.00,,SKC,0.00,0.00,VWS V14.01,2013-06-25 01:38:00,
2013-06-24 21:39:00,74.4,69.3,30.06,NNW,328,0.0,1.0,84,0.00,,SKC,0.00,0.00,VWS V14.01,2013-06-25 01:39:00,
2013-06-24 21:42:00,74.2,69.1,30.06,NNW,328,1.0,1.0,84,0.00,,SKC,0.00,0.00,VWS V14.01,2013-06-25 01:42:00,
2013-06-24 21:43:00,74.2,69.1,30.06,NNW,328,0.0,1.0,84,0.00,,SKC,0.00,0.00,VWS V14.01,2013-06-25 01:43:00,
2013-06-24 21:44:00,74.2,69.4,30.06,NNW,328,0.0,1.0,85,0.00,,SKC,0.00,0.00,VWS V14.01,2013-06-25 01:44:00,
2013-06-24 21:47:00,74.1,69.7,30.06,NNW,328,2.0,2.0,86,0.00,,SKC,0.00,0.00,VWS V14.01,2013-06-25 01:47:00,
2013-06-24 21:48:00,74.0,69.6,30.06,NNW,328,1.0,2.0,86,0.00,,SKC,0.00,0.00,VWS V14.01,2013-06-25 01:48:00,
2013-06-24 21:50:00,73.9,69.8,30.06,NNW,328,0.0,2.0,87,0.00,,SKC,0.00,0.00,VWS V14.01,2013-06-25 01:50:00,
2013-06-24 21:53:00,73.7,69.3,30.06,NNW,328,0.0,2.0,86,0.00,,SKC,0.00,0.00,VWS V14.01,2013-06-25 01:53:00,
2013-06-24 21:54:00,73.7,69.6,30.06,NNW,328,0.0,2.0,87,0.00,,SKC,0.00,0.00,VWS V14.01,2013-06-25 01:54:00,
2013-06-24 21:56:00,73.6,69.5,30.06,NNW,328,0.0,2.0,87,0.00,,SKC,0.00,0.00,VWS V14.01,2013-06-25 01:56:00,
2013-06-24 21:58:00,73.5,69.4,30.06,NNW,328,0.0,2.0,87,0.00,,SKC,0.00,0.00,VWS V14.01,2013-06-25 01:58:00,
2013-06-24 21:59:00,73.4,69.3,30.06,NNW,328,0.0,2.0,87,0.00,,SKC,0.00,0.00,VWS V14.01,2013-06-25 01:59:00,
2013-06-24 22:01:00,73.0,69.2,30.06,NNW,328,0.0,0.0,88,0.00,,SKC,0.00,0.00,VWS V14.01,2013-06-25 02:01:00,
2013-06-24 22:03:00,72.8,69.0,30.07,NNW,328,0.0,0.0,88,0.00,,SKC,0.00,0.00,VWS V14.01,2013-06-25 02:03:00,
2013-06-24 22:04:00,72.8,69.0,30.07,NNW,328,0.0,0.0,88,0.00,,SKC,0.00,0.00,VWS V14.01,2013-06-25 02:04:00,
2013-06-24 22:06:00,72.7,69.3,30.07,NNW,328,0.0,0.0,89,0.00,,SKC,0.00,0.00,VWS V14.01,2013-06-25 02:06:00,
2013-06-24 22:09:00,72.6,69.2,30.07,NNW,328,0.0,0.0,89,0.00,,SKC,0.00,0.00,VWS V14.01,2013-06-25 02:09:00,
2013-06-24 22:10:00,72.6,69.2,30.07,NNW,328,0.0,0.0,89,0.00,,SKC,0.00,0.00,VWS V14.01,2013-06-25 02:10:00,
2013-06-24 22:12:00,72.5,69.1,30.07,NNW,328,1.0,2.0,89,0.00,,SKC,0.00,0.00,VWS V14.01,2013-06-25 02:12:00,
2013-06-24 22:14:00,72.5,68.8,30.07,NNW,328,0.0,2.0,88,0.00,,SKC,0.00,0.00,VWS V14.01,2013-06-25 02:14:00,
2013-06-24 22:15:00,72.5,69.1,30.07,NNW,328,0.0,2.0,89,0.00,,SKC,0.00,0.00,VWS V14.01,2013-06-25 02:15:00,
2013-06-24 22:18:00,72.4,69.0,30.07,NNW,328,1.0,2.0,89,0.00,,SKC,0.00,0.00,VWS V14.01,2013-06-25 02:18:00,
2013-06-24 22:19:00,72.4,69.0,30.07,NNW,328,1.0,2.0,89,0.00,,SKC,0.00,0.00,VWS V14.01,2013-06-25 02:19:00,
2013-06-24 22:20:00,72.4,69.0,30.07,NNW,328,0.0,2.0,89,0.00,,SKC,0.00,0.00,VWS V14.01,2013-06-25 02:20:00,
2013-06-24 22:21:00,72.3,68.9,30.07,NNW,328,0.0,2.0,89,0.00,,SKC,0.00,0.00,VWS V14.01,2013-06-25 02:21:00,
2013-06-24 22:23:00,72.3,68.9,30.07,NNW,328,0.0,2.0,89,0.00,,SKC,0.00,0.00,VWS V14.01,2013-06-25 02:23:00,
2013-06-24 22:24:00,72.2,68.8,30.07,NNW,328,2.0,2.0,89,0.00,,SKC,0.00,0.00,VWS V14.01,2013-06-25 02:24:00,
2013-06-24 22:25:00,72.2,68.8,30.07,NNW,329,1.0,2.0,89,0.00,,SKC,0.00,0.00,VWS V14.01,2013-06-25 02:25:00,
2013-06-24 22:26:00,72.2,69.1,30.07,NNW,329,1.0,2.0,90,0.00,,SKC,0.00,0.00,VWS V14.01,2013-06-25 02:26:00,
2013-06-24 22:28:00,72.1,69.0,30.07,NNW,329,0.0,2.0,90,0.00,,SKC,0.00,0.00,VWS V14.01,2013-06-25 02:28:00,
2013-06-24 22:29:00,72.1,69.0,30.07,NNW,329,0.0,2.0,90,0.00,,SKC,0.00,0.00,VWS V14.01,2013-06-25 02:29:00,
2013-06-24 22:30:00,72.1,69.0,30.07,NNW,329,0.0,2.0,90,0.00,,SKC,0.00,0.00,VWS V14.01,2013-06-25 02:30:00,
2013-06-24 22:32:00,72.0,68.9,30.07,NNW,329,0.0,0.0,90,0.00,,SKC,0.00,0.00,VWS V14.01,2013-06-25 02:32:00,
2013-06-24 22:33:00,72.0,68.9,30.08,NNW,329,0.0,1.0,90,0.00,,SKC,0.00,0.00,VWS V14.01,2013-06-25 02:33:00,
2013-06-24 22:35:00,72.0,68.9,30.08,NNW,329,0.0,1.0,90,0.00,,SKC,0.00,0.00,VWS V14.01,2013-06-25 02:35:00,
2013-06-24 22:36:00,71.9,69.1,30.07,NNW,329,0.0,1.0,91,0.00,,SKC,0.00,0.00,VWS V14.01,2013-06-25 02:36:00,
2013-06-24 22:37:00,71.9,69.1,30.07,NNW,329,2.0,2.0,91,0.00,,SKC,0.00,0.00,VWS V14.01,2013-06-25 02:37:00,
2013-06-24 22:38:00,71.8,69.0,30.08,NNW,329,0.0,2.0,91,0.00,,SKC,0.00,0.00,VWS V14.01,2013-06-25 02:38:00,
2013-06-24 22:40:00,71.8,69.0,30.08,NNW,329,0.0,2.0,91,0.00,,SKC,0.00,0.00,VWS V14.01,2013-06-25 02:40:00,
2013-06-24 22:41:00,71.8,69.0,30.08,NNW,329,0.0,2.0,91,0.00,,SKC,0.00,0.00,VWS V14.01,2013-06-25 02:41:00,
2013-06-24 22:42:00,71.8,69.0,30.08,NNW,329,0.0,2.0,91,0.00,,SKC,0.00,0.00,VWS V14.01,2013-06-25 02:42:00,
2013-06-24 22:44:00,71.8,69.3,30.08,NNW,329,0.0,2.0,92,0.00,,SKC,0.00,0.00,VWS V14.01,2013-06-25 02:44:00,
2013-06-24 22:45:00,71.8,69.3,30.08,NNW,329,0.0,2.0,92,0.00,,SKC,0.00,0.00,VWS V14.01,2013-06-25 02:45:00,
2013-06-24 22:47:00,71.8,69.3,30.08,NNW,329,0.0,2.0,92,0.00,,SKC,0.00,0.00,VWS V14.01,2013-06-25 02:47:00,
2013-06-24 22:48:00,71.8,69.3,30.08,NNW,329,0.0,2.0,92,0.00,,SKC,0.00,0.00,VWS V14.01,2013-06-25 02:48:00,
2013-06-24 22:49:00,71.8,69.0,30.08,WNW,301,3.0,3.0,91,0.00,,SKC,0.00,0.00,VWS V14.01,2013-06-25 02:49:00,
2013-06-24 22:51:00,71.9,69.1,30.08,WNW,298,0.0,3.0,91,0.00,,SKC,0.00,0.00,VWS V14.01,2013-06-25 02:51:00,
2013-06-24 22:53:00,71.9,69.1,30.08,WNW,298,0.0,3.0,91,0.00,,SKC,0.00,0.00,VWS V14.01,2013-06-25 02:53:00,
2013-06-24 22:55:00,71.9,69.1,30.08,WNW,298,0.0,3.0,91,0.00,,SKC,0.00,0.00,VWS V14.01,2013-06-25 02:55:00,
2013-06-24 22:56:00,71.9,69.1,30.08,WNW,298,0.0,3.0,91,0.00,,SKC,0.00,0.00,VWS V14.01,2013-06-25 02:56:00,
2013-06-24 22:58:00,71.9,69.1,30.08,WNW,298,0.0,3.0,91,0.00,,SKC,0.00,0.00,VWS V14.01,2013-06-25 02:58:00,
2013-06-24 23:00:00,71.9,69.1,30.08,WNW,298,0.0,3.0,91,0.00,,SKC,0.00,0.00,VWS V14.01,2013-06-25 03:00:00,
2013-06-24 23:02:00,71.9,69.1,30.08,WNW,298,0.0,0.0,91,0.00,,SKC,0.00,0.00,VWS V14.01,2013-06-25 03:02:00,
2013-06-24 23:04:00,71.9,69.1,30.08,WNW,298,0.0,0.0,91,0.00,,SKC,0.00,0.00,VWS V14.01,2013-06-25 03:04:00,
2013-06-24 23:05:00,71.8,69.0,30.08,WNW,298,0.0,0.0,91,0.00,,SKC,0.00,0.00,VWS V14.01,2013-06-25 03:05:00,
2013-06-24 23:07:00,71.8,69.0,30.08,WNW,298,0.0,0.0,91,0.00,,SKC,0.00,0.00,VWS V14.01,2013-06-25 03:07:00,
2013-06-24 23:09:00,71.8,69.0,30.08,WNW,298,0.0,0.0,91,0.00,,SKC,0.00,0.00,VWS V14.01,2013-06-25 03:09:00,
2013-06-24 23:10:00,71.8,69.0,30.08,WNW,298,0.0,0.0,91,0.00,,SKC,0.00,0.00,VWS V14.01,2013-06-25 03:10:00,
2013-06-24 23:12:00,71.7,68.9,30.08,WNW,298,0.0,0.0,91,0.00,,SKC,0.00,0.00,VWS V14.01,2013-06-25 03:12:00,
2013-06-24 23:15:00,71.7,69.3,30.08,WNW,298,0.0,1.0,92,0.00,,SKC,0.00,0.00,VWS V14.01,2013-06-25 03:15:00,
2013-06-24 23:17:00,71.6,69.2,30.08,WNW,298,2.0,2.0,92,0.00,,SKC,0.00,0.00,VWS V14.01,2013-06-25 03:17:00,
2013-06-24 23:20:00,71.6,69.2,30.08,WNW,298,1.0,2.0,92,0.00,,SKC,0.00,0.00,VWS V14.01,2013-06-25 03:20:00,
2013-06-24 23:21:00,71.5,69.1,30.08,WNW,298,1.0,2.0,92,0.00,,SKC,0.00,0.00,VWS V14.01,2013-06-25 03:21:00,
2013-06-24 23:24:00,71.4,69.0,30.08,WNW,298,0.0,2.0,92,0.00,,SKC,0.00,0.00,VWS V14.01,2013-06-25 03:24:00,
2013-06-24 23:25:00,71.3,68.9,30.07,WNW,298,0.0,2.0,92,0.00,,SKC,0.00,0.00,VWS V14.01,2013-06-25 03:25:00,
2013-06-24 23:26:00,71.3,68.9,30.07,WNW,298,0.0,2.0,92,0.00,,SKC,0.00,0.00,VWS V14.01,2013-06-25 03:26:00,
2013-06-24 23:30:00,71.1,69.0,30.07,WNW,298,0.0,2.0,93,0.00,,SKC,0.00,0.00,VWS V14.01,2013-06-25 03:30:00,
2013-06-24 23:31:00,71.0,68.9,30.07,WNW,298,0.0,0.0,93,0.00,,SKC,0.00,0.00,VWS V14.01,2013-06-25 03:31:00,
2013-06-24 23:37:00,70.9,68.8,30.07,WNW,298,0.0,1.0,93,0.00,,SKC,0.00,0.00,VWS V14.01,2013-06-25 03:37:00,
2013-06-24 23:42:00,70.9,68.8,30.07,WNW,298,2.0,2.0,93,0.00,,SKC,0.00,0.00,VWS V14.01,2013-06-25 03:42:00,
2013-06-24 23:43:00,70.9,68.8,30.07,WNW,298,1.0,2.0,93,0.00,,SKC,0.00,0.00,VWS V14.01,2013-06-25 03:43:00,
2013-06-24 23:48:00,70.8,68.7,30.07,SSE,162,1.0,3.0,93,0.00,,SKC,0.00,0.00,VWS V14.01,2013-06-25 03:48:00,
2013-06-24 23:49:00,70.7,68.9,30.07,SSE,162,1.0,3.0,94,0.00,,SKC,0.00,0.00,VWS V14.01,2013-06-25 03:49:00,
2013-06-24 23:53:00,70.6,68.8,30.07,SSE,162,0.0,3.0,94,0.00,,SKC,0.00,0.00,VWS V14.01,2013-06-25 03:53:00,
2013-06-24 23:54:00,70.6,68.8,30.07,SSE,162,0.0,3.0,94,0.00,,SKC,0.00,0.00,VWS V14.01,2013-06-25 03:54:00,
2013-06-24 23:59:00,70.6,68.8,30.07,SSE,162,0.0,3.0,94,0.00,,SKC,0.00,0.00,VWS V14.01,2013-06-25 03:59:00,